Time,TemperatureF,DewpointF,PressureIn,WindDirection,WindDirectionDegrees,WindSpeedMPH,WindSpeedGustMPH,Humidity,HourlyPrecipIn,Conditions,Clouds,dailyrainin,SoftwareType,DateUTC
2013-03-02 00:00:00,22.9,19.1,30.11,NW,318,2.0,2.0,85,0.00,,,0.00,Wunderground v.1.15,2013-03-02 05:00:00,
2013-03-02 00:01:00,22.9,19.1,30.11,NW,318,4.0,4.0,85,0.00,,,0.00,Wunderground v.1.15,2013-03-02 05:01:00,
2013-03-02 00:03:00,22.9,19.1,30.11,NNW,339,5.0,5.0,85,0.00,,,0.00,Wunderground v.1.15,2013-03-02 05:03:00,
2013-03-02 00:06:00,22.9,19.1,30.11,West,281,2.0,5.0,85,0.00,,,0.00,Wunderground v.1.15,2013-03-02 05:06:00,
2013-03-02 00:08:00,22.9,19.1,30.11,West,274,3.0,5.0,85,0.00,,,0.00,Wunderground v.1.15,2013-03-02 05:08:00,
2013-03-02 00:09:00,22.8,19.0,30.11,NW,318,1.0,5.0,85,0.00,,,0.00,Wunderground v.1.15,2013-03-02 05:09:00,
2013-03-02 00:10:00,22.8,19.0,30.11,WNW,295,2.0,2.0,85,0.00,,,0.00,Wunderground v.1.15,2013-03-02 05:10:00,
2013-03-02 00:11:00,22.8,19.0,30.11,NW,307,4.0,4.0,85,0.00,,,0.00,Wunderground v.1.15,2013-03-02 05:11:00,
2013-03-02 00:14:00,22.8,19.0,30.11,North,4,2.0,4.0,85,0.00,,,0.00,Wunderground v.1.15,2013-03-02 05:14:00,
2013-03-02 00:16:00,22.8,19.0,30.11,NNE,24,1.0,4.0,85,0.00,,,0.00,Wunderground v.1.15,2013-03-02 05:16:00,
2013-03-02 00:17:00,22.8,19.0,30.11,NW,323,3.0,4.0,85,0.00,,,0.00,Wunderground v.1.15,2013-03-02 05:17:00,
2013-03-02 00:21:00,22.8,19.0,30.11,NW,309,1.0,2.0,85,0.00,,,0.00,Wunderground v.1.15,2013-03-02 05:21:00,
2013-03-02 00:23:00,22.8,19.0,30.11,NW,304,1.0,4.0,85,0.00,,,0.00,Wunderground v.1.15,2013-03-02 05:23:00,
2013-03-02 00:24:00,22.8,19.0,30.11,WNW,294,1.0,4.0,85,0.00,,,0.00,Wunderground v.1.15,2013-03-02 05:24:00,
2013-03-02 00:25:00,22.8,19.0,30.11,NW,315,1.0,4.0,85,0.00,,,0.00,Wunderground v.1.15,2013-03-02 05:25:00,
2013-03-02 00:27:00,22.8,19.0,30.11,WNW,283,2.0,4.0,85,0.00,,,0.00,Wunderground v.1.15,2013-03-02 05:27:00,
2013-03-02 00:29:00,22.7,18.9,30.11,WNW,290,2.0,4.0,85,0.00,,,0.00,Wunderground v.1.15,2013-03-02 05:29:00,
2013-03-02 00:30:00,22.7,18.9,30.11,NW,318,1.0,2.0,85,0.00,,,0.00,Wunderground v.1.15,2013-03-02 05:30:00,
2013-03-02 00:32:00,22.7,18.9,30.11,NW,324,2.0,3.0,85,0.00,,,0.00,Wunderground v.1.15,2013-03-02 05:32:00,
2013-03-02 00:34:00,22.7,18.9,30.11,WNW,285,3.0,3.0,85,0.00,,,0.00,Wunderground v.1.15,2013-03-02 05:34:00,
2013-03-02 00:37:00,22.7,18.9,30.11,NNW,336,2.0,3.0,85,0.00,,,0.00,Wunderground v.1.15,2013-03-02 05:37:00,
2013-03-02 00:40:00,22.7,18.9,30.11,NW,311,2.0,2.0,85,0.00,,,0.00,Wunderground v.1.15,2013-03-02 05:40:00,
2013-03-02 00:42:00,22.7,18.9,30.11,NW,313,4.0,5.0,85,0.00,,,0.00,Wunderground v.1.15,2013-03-02 05:42:00,
2013-03-02 00:43:00,22.6,18.8,30.11,NE,56,5.0,5.0,85,0.00,,,0.00,Wunderground v.1.15,2013-03-02 05:43:00,
2013-03-02 00:45:00,22.6,18.8,30.11,West,278,2.0,5.0,85,0.00,,,0.00,Wunderground v.1.15,2013-03-02 05:45:00,
2013-03-02 00:47:00,22.6,18.8,30.11,NW,320,1.0,5.0,85,0.00,,,0.00,Wunderground v.1.15,2013-03-02 05:47:00,
2013-03-02 00:51:00,22.6,18.8,30.11,NNE,24,2.0,3.0,85,0.00,,,0.00,Wunderground v.1.15,2013-03-02 05:51:00,
2013-03-02 00:52:00,22.6,18.8,30.11,NNE,13,11.0,11.0,85,0.00,,,0.00,Wunderground v.1.15,2013-03-02 05:52:00,
2013-03-02 00:54:00,22.5,18.4,30.11,NNW,339,1.0,11.0,84,0.00,,,0.00,Wunderground v.1.15,2013-03-02 05:54:00,
2013-03-02 00:56:00,22.5,18.4,30.11,WNW,300,3.0,11.0,84,0.00,,,0.00,Wunderground v.1.15,2013-03-02 05:56:00,
2013-03-02 00:57:00,22.6,18.5,30.11,NE,53,1.0,11.0,84,0.00,,,0.00,Wunderground v.1.15,2013-03-02 05:57:00,
2013-03-02 00:59:00,22.5,18.4,30.11,NE,34,1.0,11.0,84,0.00,,,0.00,Wunderground v.1.15,2013-03-02 05:59:00,
2013-03-02 01:01:00,22.5,18.4,30.11,NW,323,3.0,3.0,84,0.00,,,0.00,Wunderground v.1.15,2013-03-02 06:01:00,
2013-03-02 01:04:00,22.5,18.4,30.11,NW,309,2.0,3.0,84,0.00,,,0.00,Wunderground v.1.15,2013-03-02 06:04:00,
2013-03-02 01:06:00,22.5,18.4,30.11,NW,314,2.0,3.0,84,0.00,,,0.00,Wunderground v.1.15,2013-03-02 06:06:00,
2013-03-02 01:07:00,22.5,18.4,30.11,NNW,332,2.0,3.0,84,0.00,,,0.00,Wunderground v.1.15,2013-03-02 06:07:00,
2013-03-02 01:08:00,22.5,18.4,30.11,NE,36,2.0,3.0,84,0.00,,,0.00,Wunderground v.1.15,2013-03-02 06:08:00,
2013-03-02 01:09:00,22.5,18.4,30.11,West,274,2.0,3.0,84,0.00,,,0.00,Wunderground v.1.15,2013-03-02 06:09:00,
2013-03-02 01:11:00,22.5,18.4,30.10,NW,316,2.0,2.0,84,0.00,,,0.00,Wunderground v.1.15,2013-03-02 06:11:00,
2013-03-02 01:12:00,22.5,18.4,30.10,NNW,329,4.0,4.0,84,0.00,,,0.00,Wunderground v.1.15,2013-03-02 06:12:00,
2013-03-02 01:13:00,22.5,18.4,30.10,NW,311,1.0,4.0,84,0.00,,,0.00,Wunderground v.1.15,2013-03-02 06:13:00,
2013-03-02 01:15:00,22.4,18.3,30.10,NW,312,5.0,5.0,84,0.00,,,0.00,Wunderground v.1.15,2013-03-02 06:15:00,
2013-03-02 01:18:00,22.4,18.3,30.10,NW,311,3.0,5.0,84,0.00,,,0.00,Wunderground v.1.15,2013-03-02 06:18:00,
2013-03-02 01:20:00,22.4,18.3,30.10,NW,304,4.0,4.0,84,0.00,,,0.00,Wunderground v.1.15,2013-03-02 06:20:00,
2013-03-02 01:21:00,22.4,18.3,30.10,WNW,303,2.0,4.0,84,0.00,,,0.00,Wunderground v.1.15,2013-03-02 06:21:00,
2013-03-02 01:24:00,22.4,18.3,30.10,NW,310,2.0,4.0,84,0.00,,,0.00,Wunderground v.1.15,2013-03-02 06:24:00,
2013-03-02 01:27:00,22.4,18.3,30.11,NW,317,3.0,6.0,84,0.00,,,0.00,Wunderground v.1.15,2013-03-02 06:27:00,
2013-03-02 01:28:00,22.4,18.3,30.11,NW,314,2.0,6.0,84,0.00,,,0.00,Wunderground v.1.15,2013-03-02 06:28:00,
2013-03-02 01:29:00,22.4,18.3,30.11,North,358,2.0,6.0,84,0.00,,,0.00,Wunderground v.1.15,2013-03-02 06:29:00,
2013-03-02 01:32:00,22.4,18.3,30.11,WNW,282,5.0,5.0,84,0.00,,,0.00,Wunderground v.1.15,2013-03-02 06:32:00,
2013-03-02 01:33:00,22.4,18.3,30.11,NW,316,3.0,5.0,84,0.00,,,0.00,Wunderground v.1.15,2013-03-02 06:33:00,
2013-03-02 01:34:00,22.4,18.3,30.11,WNW,302,4.0,5.0,84,0.00,,,0.00,Wunderground v.1.15,2013-03-02 06:34:00,
2013-03-02 01:37:00,22.4,18.3,30.11,NW,314,2.0,8.0,84,0.00,,,0.00,Wunderground v.1.15,2013-03-02 06:37:00,
2013-03-02 01:38:00,22.4,18.3,30.11,WNW,285,4.0,8.0,84,0.00,,,0.00,Wunderground v.1.15,2013-03-02 06:38:00,
2013-03-02 01:40:00,22.4,18.3,30.11,WNW,283,1.0,3.0,84,0.00,,,0.00,Wunderground v.1.15,2013-03-02 06:40:00,
2013-03-02 01:42:00,22.4,18.3,30.11,NW,323,2.0,3.0,84,0.00,,,0.00,Wunderground v.1.15,2013-03-02 06:42:00,
2013-03-02 01:44:00,22.4,18.3,30.11,NW,322,2.0,3.0,84,0.00,,,0.00,Wunderground v.1.15,2013-03-02 06:44:00,
2013-03-02 01:47:00,22.4,18.3,30.11,NW,307,3.0,3.0,84,0.00,,,0.00,Wunderground v.1.15,2013-03-02 06:47:00,
2013-03-02 01:49:00,22.4,18.3,30.11,NNW,336,3.0,6.0,84,0.00,,,0.00,Wunderground v.1.15,2013-03-02 06:49:00,
2013-03-02 01:50:00,22.3,18.2,30.11,NNW,342,2.0,3.0,84,0.00,,,0.00,Wunderground v.1.15,2013-03-02 06:50:00,
2013-03-02 01:51:00,22.4,18.3,30.11,NW,318,3.0,3.0,84,0.00,,,0.00,Wunderground v.1.15,2013-03-02 06:51:00,
2013-03-02 01:53:00,22.3,18.2,30.11,NW,313,2.0,4.0,84,0.00,,,0.00,Wunderground v.1.15,2013-03-02 06:53:00,
2013-03-02 01:55:00,22.3,18.2,30.11,NW,308,1.0,4.0,84,0.00,,,0.00,Wunderground v.1.15,2013-03-02 06:55:00,
2013-03-02 01:58:00,22.3,18.2,30.11,NW,321,2.0,4.0,84,0.00,,,0.00,Wunderground v.1.15,2013-03-02 06:58:00,
2013-03-02 02:00:00,22.3,18.2,30.11,West,278,1.0,2.0,84,0.00,,,0.00,Wunderground v.1.15,2013-03-02 07:00:00,
2013-03-02 02:01:00,22.3,18.2,30.11,NW,324,4.0,5.0,84,0.00,,,0.00,Wunderground v.1.15,2013-03-02 07:01:00,
2013-03-02 02:03:00,22.3,18.2,30.12,NW,307,4.0,5.0,84,0.00,,,0.00,Wunderground v.1.15,2013-03-02 07:03:00,
2013-03-02 02:06:00,22.3,18.2,30.12,NNW,346,1.0,5.0,84,0.00,,,0.00,Wunderground v.1.15,2013-03-02 07:06:00,
2013-03-02 02:08:00,22.3,18.2,30.12,WNW,303,2.0,5.0,84,0.00,,,0.00,Wunderground v.1.15,2013-03-02 07:08:00,
2013-03-02 02:11:00,22.3,18.2,30.12,NW,307,0.0,2.0,84,0.00,,,0.00,Wunderground v.1.15,2013-03-02 07:11:00,
2013-03-02 02:13:00,22.3,18.2,30.12,NW,316,2.0,4.0,84,0.00,,,0.00,Wunderground v.1.15,2013-03-02 07:13:00,
2013-03-02 02:16:00,22.3,18.2,30.12,NW,316,1.0,5.0,84,0.00,,,0.00,Wunderground v.1.15,2013-03-02 07:16:00,
2013-03-02 02:18:00,22.3,18.2,30.12,WNW,293,4.0,5.0,84,0.00,,,0.00,Wunderground v.1.15,2013-03-02 07:18:00,
2013-03-02 02:21:00,22.3,18.2,30.12,WNW,300,2.0,3.0,84,0.00,,,0.00,Wunderground v.1.15,2013-03-02 07:21:00,
2013-03-02 02:23:00,22.3,18.2,30.12,NW,304,1.0,3.0,84,0.00,,,0.00,Wunderground v.1.15,2013-03-02 07:23:00,
2013-03-02 02:26:00,22.3,18.2,30.12,NW,310,0.0,3.0,84,0.00,,,0.00,Wunderground v.1.15,2013-03-02 07:26:00,
2013-03-02 02:28:00,22.3,18.2,30.12,NNW,336,1.0,4.0,84,0.00,,,0.00,Wunderground v.1.15,2013-03-02 07:28:00,
2013-03-02 02:31:00,22.3,18.2,30.12,West,276,0.0,1.0,84,0.00,,,0.00,Wunderground v.1.15,2013-03-02 07:31:00,
2013-03-02 02:33:00,22.3,18.2,30.12,WNW,294,3.0,4.0,84,0.00,,,0.00,Wunderground v.1.15,2013-03-02 07:33:00,
2013-03-02 02:36:00,22.3,18.2,30.12,North,8,1.0,4.0,84,0.00,,,0.00,Wunderground v.1.15,2013-03-02 07:36:00,
2013-03-02 02:37:00,22.3,18.2,30.12,North,1,1.0,4.0,84,0.00,,,0.00,Wunderground v.1.15,2013-03-02 07:37:00,
2013-03-02 02:39:00,22.3,18.2,30.12,WNW,300,1.0,4.0,84,0.00,,,0.00,Wunderground v.1.15,2013-03-02 07:39:00,
2013-03-02 02:41:00,22.3,18.2,30.12,NNW,335,1.0,6.0,84,0.00,,,0.00,Wunderground v.1.15,2013-03-02 07:41:00,
2013-03-02 02:42:00,22.3,18.2,30.12,NNE,24,2.0,6.0,84,0.00,,,0.00,Wunderground v.1.15,2013-03-02 07:42:00,
2013-03-02 02:44:00,22.3,18.2,30.12,NNW,332,3.0,6.0,84,0.00,,,0.00,Wunderground v.1.15,2013-03-02 07:44:00,
2013-03-02 02:46:00,22.3,18.2,30.12,NW,325,2.0,6.0,84,0.00,,,0.00,Wunderground v.1.15,2013-03-02 07:46:00,
2013-03-02 02:47:00,22.3,18.2,30.12,NNW,331,0.0,6.0,84,0.00,,,0.00,Wunderground v.1.15,2013-03-02 07:47:00,
2013-03-02 02:48:00,22.3,18.2,30.12,NW,309,1.0,6.0,84,0.00,,,0.00,Wunderground v.1.15,2013-03-02 07:48:00,
2013-03-02 02:49:00,22.3,18.2,30.12,NW,309,1.0,6.0,84,0.00,,,0.00,Wunderground v.1.15,2013-03-02 07:49:00,
2013-03-02 02:51:00,22.3,18.2,30.12,NW,310,1.0,2.0,84,0.00,,,0.00,Wunderground v.1.15,2013-03-02 07:51:00,
2013-03-02 02:52:00,22.3,18.2,30.12,NW,312,1.0,2.0,84,0.00,,,0.00,Wunderground v.1.15,2013-03-02 07:52:00,
2013-03-02 02:53:00,22.3,18.2,30.11,NW,311,2.0,2.0,84,0.00,,,0.00,Wunderground v.1.15,2013-03-02 07:53:00,
2013-03-02 02:54:00,22.3,18.2,30.12,NW,321,0.0,3.0,84,0.00,,,0.00,Wunderground v.1.15,2013-03-02 07:54:00,
2013-03-02 02:57:00,22.4,18.3,30.11,NW,309,1.0,3.0,84,0.00,,,0.00,Wunderground v.1.15,2013-03-02 07:57:00,
2013-03-02 02:58:00,22.4,18.3,30.11,NW,308,3.0,3.0,84,0.00,,,0.00,Wunderground v.1.15,2013-03-02 07:58:00,
2013-03-02 02:59:00,22.3,18.2,30.11,NW,305,1.0,3.0,84,0.00,,,0.00,Wunderground v.1.15,2013-03-02 07:59:00,
2013-03-02 03:02:00,22.4,18.3,30.11,WNW,293,2.0,5.0,84,0.00,,,0.00,Wunderground v.1.15,2013-03-02 08:02:00,
2013-03-02 03:03:00,22.3,18.2,30.11,West,281,1.0,5.0,84,0.00,,,0.00,Wunderground v.1.15,2013-03-02 08:03:00,
2013-03-02 03:04:00,22.4,18.3,30.11,NW,311,0.0,5.0,84,0.00,,,0.00,Wunderground v.1.15,2013-03-02 08:04:00,
2013-03-02 03:07:00,22.4,18.3,30.11,WNW,302,0.0,5.0,84,0.00,,,0.00,Wunderground v.1.15,2013-03-02 08:07:00,
2013-03-02 03:08:00,22.4,18.3,30.11,NW,308,2.0,5.0,84,0.00,,,0.00,Wunderground v.1.15,2013-03-02 08:08:00,
2013-03-02 03:10:00,22.4,18.3,30.11,North,354,2.0,4.0,84,0.00,,,0.00,Wunderground v.1.15,2013-03-02 08:10:00,
2013-03-02 03:12:00,22.4,18.3,30.11,West,264,4.0,4.0,84,0.00,,,0.00,Wunderground v.1.15,2013-03-02 08:12:00,
2013-03-02 03:13:00,22.4,18.3,30.11,NW,314,2.0,4.0,84,0.00,,,0.00,Wunderground v.1.15,2013-03-02 08:13:00,
2013-03-02 03:15:00,22.4,18.3,30.11,WNW,293,2.0,4.0,84,0.00,,,0.00,Wunderground v.1.15,2013-03-02 08:15:00,
2013-03-02 03:17:00,22.4,18.6,30.11,West,276,1.0,4.0,85,0.00,,,0.00,Wunderground v.1.15,2013-03-02 08:17:00,
2013-03-02 03:18:00,22.4,18.6,30.11,NW,312,2.0,4.0,85,0.00,,,0.00,Wunderground v.1.15,2013-03-02 08:18:00,
2013-03-02 03:19:00,22.4,18.6,30.11,NW,305,2.0,4.0,85,0.00,,,0.00,Wunderground v.1.15,2013-03-02 08:19:00,
2013-03-02 03:20:00,22.4,18.6,30.11,NW,313,3.0,3.0,85,0.00,,,0.00,Wunderground v.1.15,2013-03-02 08:20:00,
2013-03-02 03:23:00,22.4,18.6,30.11,West,271,2.0,6.0,85,0.00,,,0.00,Wunderground v.1.15,2013-03-02 08:23:00,
2013-03-02 03:24:00,22.4,18.6,30.11,NW,316,3.0,6.0,85,0.00,,,0.00,Wunderground v.1.15,2013-03-02 08:24:00,
2013-03-02 03:25:00,22.4,18.6,30.11,NW,324,1.0,6.0,85,0.00,,,0.00,Wunderground v.1.15,2013-03-02 08:25:00,
2013-03-02 03:28:00,22.4,18.6,30.11,NW,316,2.0,6.0,85,0.00,,,0.00,Wunderground v.1.15,2013-03-02 08:28:00,
2013-03-02 03:29:00,22.4,18.6,30.11,NW,323,3.0,6.0,85,0.00,,,0.00,Wunderground v.1.15,2013-03-02 08:29:00,
2013-03-02 03:30:00,22.4,18.6,30.11,NNW,327,2.0,2.0,85,0.00,,,0.00,Wunderground v.1.15,2013-03-02 08:30:00,
2013-03-02 03:33:00,22.4,18.6,30.11,WNW,301,1.0,6.0,85,0.00,,,0.00,Wunderground v.1.15,2013-03-02 08:33:00,
2013-03-02 03:34:00,22.4,18.6,30.11,NW,310,1.0,6.0,85,0.00,,,0.00,Wunderground v.1.15,2013-03-02 08:34:00,
2013-03-02 03:35:00,22.4,18.6,30.11,NNW,341,3.0,6.0,85,0.00,,,0.00,Wunderground v.1.15,2013-03-02 08:35:00,
2013-03-02 03:38:00,22.4,18.6,30.11,NNW,328,3.0,6.0,85,0.00,,,0.00,Wunderground v.1.15,2013-03-02 08:38:00,
2013-03-02 03:39:00,22.4,18.6,30.11,NW,307,1.0,6.0,85,0.00,,,0.00,Wunderground v.1.15,2013-03-02 08:39:00,
2013-03-02 03:40:00,22.4,18.6,30.11,NW,317,5.0,6.0,85,0.00,,,0.00,Wunderground v.1.15,2013-03-02 08:40:00,
2013-03-02 03:44:00,22.4,18.6,30.11,NW,310,2.0,6.0,85,0.00,,,0.00,Wunderground v.1.15,2013-03-02 08:44:00,
2013-03-02 03:45:00,22.4,18.6,30.11,West,266,2.0,6.0,85,0.00,,,0.00,Wunderground v.1.15,2013-03-02 08:45:00,
2013-03-02 03:49:00,22.4,18.6,30.11,NW,315,4.0,7.0,85,0.00,,,0.00,Wunderground v.1.15,2013-03-02 08:49:00,
2013-03-02 03:50:00,22.3,18.5,30.11,WNW,295,1.0,3.0,85,0.00,,,0.00,Wunderground v.1.15,2013-03-02 08:50:00,
2013-03-02 03:54:00,22.3,18.5,30.11,West,280,1.0,6.0,85,0.00,,,0.00,Wunderground v.1.15,2013-03-02 08:54:00,
2013-03-02 03:56:00,22.4,18.6,30.11,WNW,294,1.0,6.0,85,0.00,,,0.00,Wunderground v.1.15,2013-03-02 08:56:00,
2013-03-02 03:59:00,22.4,18.6,30.12,North,1,3.0,6.0,85,0.00,,,0.00,Wunderground v.1.15,2013-03-02 08:59:00,
2013-03-02 04:01:00,22.4,18.8,30.11,North,358,2.0,3.0,86,0.00,,,0.00,Wunderground v.1.15,2013-03-02 09:01:00,
2013-03-02 04:04:00,22.4,18.8,30.12,NNW,336,1.0,8.0,86,0.00,,,0.00,Wunderground v.1.15,2013-03-02 09:04:00,
2013-03-02 04:05:00,22.4,18.8,30.12,NNE,12,1.0,8.0,86,0.00,,,0.00,Wunderground v.1.15,2013-03-02 09:05:00,
2013-03-02 04:06:00,22.4,18.8,30.12,NNW,327,0.0,8.0,86,0.00,,,0.00,Wunderground v.1.15,2013-03-02 09:06:00,
2013-03-02 04:09:00,22.4,18.8,30.12,WNW,300,3.0,8.0,86,0.00,,,0.00,Wunderground v.1.15,2013-03-02 09:09:00,
2013-03-02 04:10:00,22.4,18.8,30.12,WNW,283,1.0,2.0,86,0.00,,,0.00,Wunderground v.1.15,2013-03-02 09:10:00,
2013-03-02 04:11:00,22.4,18.8,30.12,NW,306,1.0,4.0,86,0.00,,,0.00,Wunderground v.1.15,2013-03-02 09:11:00,
2013-03-02 04:14:00,22.4,18.8,30.12,NW,319,0.0,4.0,86,0.00,,,0.00,Wunderground v.1.15,2013-03-02 09:14:00,
2013-03-02 04:15:00,22.4,18.8,30.12,NW,316,2.0,4.0,86,0.00,,,0.00,Wunderground v.1.15,2013-03-02 09:15:00,
2013-03-02 04:16:00,22.4,18.8,30.12,West,274,1.0,4.0,86,0.00,,,0.00,Wunderground v.1.15,2013-03-02 09:16:00,
2013-03-02 04:19:00,22.4,18.8,30.12,NNW,341,3.0,6.0,86,0.00,,,0.00,Wunderground v.1.15,2013-03-02 09:19:00,
2013-03-02 04:20:00,22.4,18.8,30.12,NNW,328,2.0,3.0,86,0.00,,,0.00,Wunderground v.1.15,2013-03-02 09:20:00,
2013-03-02 04:21:00,22.4,18.8,30.12,NW,309,3.0,5.0,86,0.00,,,0.00,Wunderground v.1.15,2013-03-02 09:21:00,
2013-03-02 04:24:00,22.4,18.8,30.12,NW,323,0.0,5.0,86,0.00,,,0.00,Wunderground v.1.15,2013-03-02 09:24:00,
2013-03-02 04:25:00,22.4,18.8,30.12,NNE,23,2.0,5.0,86,0.00,,,0.00,Wunderground v.1.15,2013-03-02 09:25:00,
2013-03-02 04:27:00,22.4,18.8,30.12,WSW,253,2.0,5.0,86,0.00,,,0.00,Wunderground v.1.15,2013-03-02 09:27:00,
2013-03-02 04:30:00,22.4,18.8,30.12,North,353,0.0,2.0,86,0.00,,,0.00,Wunderground v.1.15,2013-03-02 09:30:00,
2013-03-02 04:31:00,22.4,18.8,30.12,NNW,343,1.0,2.0,86,0.00,,,0.00,Wunderground v.1.15,2013-03-02 09:31:00,
2013-03-02 04:32:00,22.4,18.8,30.12,NNW,348,1.0,3.0,86,0.00,,,0.00,Wunderground v.1.15,2013-03-02 09:32:00,
2013-03-02 04:35:00,22.5,18.9,30.12,NW,307,1.0,5.0,86,0.00,,,0.00,Wunderground v.1.15,2013-03-02 09:35:00,
2013-03-02 04:36:00,22.4,18.8,30.12,WNW,297,0.0,5.0,86,0.00,,,0.00,Wunderground v.1.15,2013-03-02 09:36:00,
2013-03-02 04:37:00,22.5,18.9,30.12,WNW,297,1.0,5.0,86,0.00,,,0.00,Wunderground v.1.15,2013-03-02 09:37:00,
2013-03-02 04:40:00,22.5,18.9,30.12,NE,53,2.0,2.0,86,0.00,,,0.00,Wunderground v.1.15,2013-03-02 09:40:00,
2013-03-02 04:41:00,22.5,18.9,30.12,NNW,336,3.0,3.0,86,0.00,,,0.00,Wunderground v.1.15,2013-03-02 09:41:00,
2013-03-02 04:42:00,22.5,18.9,30.12,NW,307,2.0,3.0,86,0.00,,,0.00,Wunderground v.1.15,2013-03-02 09:42:00,
2013-03-02 04:45:00,22.5,18.9,30.12,NNW,345,2.0,4.0,86,0.00,,,0.00,Wunderground v.1.15,2013-03-02 09:45:00,
2013-03-02 04:46:00,22.5,18.9,30.12,West,278,1.0,4.0,86,0.00,,,0.00,Wunderground v.1.15,2013-03-02 09:46:00,
2013-03-02 04:47:00,22.5,18.9,30.12,North,359,1.0,4.0,86,0.00,,,0.00,Wunderground v.1.15,2013-03-02 09:47:00,
2013-03-02 04:48:00,22.5,18.9,30.12,NW,317,1.0,5.0,86,0.00,,,0.00,Wunderground v.1.15,2013-03-02 09:48:00,
2013-03-02 04:50:00,22.5,18.9,30.12,NW,317,1.0,2.0,86,0.00,,,0.00,Wunderground v.1.15,2013-03-02 09:50:00,
2013-03-02 04:51:00,22.5,18.9,30.12,NW,323,0.0,2.0,86,0.00,,,0.00,Wunderground v.1.15,2013-03-02 09:51:00,
2013-03-02 04:52:00,22.5,18.9,30.12,NW,323,0.0,2.0,86,0.00,,,0.00,Wunderground v.1.15,2013-03-02 09:52:00,
2013-03-02 04:53:00,22.5,18.9,30.12,NNW,340,1.0,3.0,86,0.00,,,0.00,Wunderground v.1.15,2013-03-02 09:53:00,
2013-03-02 04:55:00,22.5,18.9,30.12,NW,314,1.0,3.0,86,0.00,,,0.00,Wunderground v.1.15,2013-03-02 09:55:00,
2013-03-02 04:56:00,22.6,19.0,30.12,West,264,1.0,3.0,86,0.00,,,0.00,Wunderground v.1.15,2013-03-02 09:56:00,
2013-03-02 04:57:00,22.6,19.0,30.12,NW,305,1.0,4.0,86,0.00,,,0.00,Wunderground v.1.15,2013-03-02 09:57:00,
2013-03-02 04:58:00,22.6,19.0,30.12,WNW,301,1.0,4.0,86,0.00,,,0.00,Wunderground v.1.15,2013-03-02 09:58:00,
2013-03-02 05:00:00,22.6,19.0,30.12,West,271,5.0,5.0,86,0.00,,,0.00,Wunderground v.1.15,2013-03-02 10:00:00,
2013-03-02 05:01:00,22.6,19.0,30.12,North,6,2.0,5.0,86,0.00,,,0.00,Wunderground v.1.15,2013-03-02 10:01:00,
2013-03-02 05:02:00,22.6,19.0,30.12,West,275,3.0,5.0,86,0.00,,,0.00,Wunderground v.1.15,2013-03-02 10:02:00,
2013-03-02 05:03:00,22.6,19.0,30.12,WNW,291,1.0,5.0,86,0.00,,,0.00,Wunderground v.1.15,2013-03-02 10:03:00,
2013-03-02 05:05:00,22.6,19.0,30.12,NE,44,2.0,5.0,86,0.00,,,0.00,Wunderground v.1.15,2013-03-02 10:05:00,
2013-03-02 05:08:00,22.6,19.0,30.12,NW,306,2.0,5.0,86,0.00,,,0.00,Wunderground v.1.15,2013-03-02 10:08:00,
2013-03-02 05:09:00,22.6,19.0,30.13,North,4,1.0,5.0,86,0.00,,,0.00,Wunderground v.1.15,2013-03-02 10:09:00,
2013-03-02 05:11:00,22.7,19.1,30.12,NNW,340,1.0,3.0,86,0.00,,,0.00,Wunderground v.1.15,2013-03-02 10:11:00,
2013-03-02 05:14:00,22.7,19.1,30.12,NNW,338,1.0,3.0,86,0.00,,,0.00,Wunderground v.1.15,2013-03-02 10:14:00,
2013-03-02 05:16:00,22.6,19.0,30.12,NNE,29,4.0,6.0,86,0.00,,,0.00,Wunderground v.1.15,2013-03-02 10:16:00,
2013-03-02 05:19:00,22.6,19.0,30.12,North,8,1.0,6.0,86,0.00,,,0.00,Wunderground v.1.15,2013-03-02 10:19:00,
2013-03-02 05:20:00,22.6,19.0,30.12,NW,316,1.0,2.0,86,0.00,,,0.00,Wunderground v.1.15,2013-03-02 10:20:00,
2013-03-02 05:21:00,22.6,19.0,30.12,NNW,339,3.0,6.0,86,0.00,,,0.00,Wunderground v.1.15,2013-03-02 10:21:00,
2013-03-02 05:24:00,22.6,19.0,30.12,NW,316,1.0,7.0,86,0.00,,,0.00,Wunderground v.1.15,2013-03-02 10:24:00,
2013-03-02 05:25:00,22.6,19.0,30.12,NW,322,2.0,7.0,86,0.00,,,0.00,Wunderground v.1.15,2013-03-02 10:25:00,
2013-03-02 05:27:00,22.6,19.0,30.12,NW,309,2.0,7.0,86,0.00,,,0.00,Wunderground v.1.15,2013-03-02 10:27:00,
2013-03-02 05:29:00,22.6,19.0,30.13,NNW,328,3.0,3.0,86,0.00,,,0.00,Wunderground v.1.15,2013-03-02 10:29:00,
2013-03-02 05:30:00,22.6,19.0,30.13,West,263,2.0,3.0,86,0.00,,,0.00,Wunderground v.1.15,2013-03-02 10:30:00,
2013-03-02 05:32:00,22.6,19.0,30.13,NW,321,3.0,6.0,86,0.00,,,0.00,Wunderground v.1.15,2013-03-02 10:32:00,
2013-03-02 05:36:00,22.5,18.9,30.13,North,11,1.0,6.0,86,0.00,,,0.00,Wunderground v.1.15,2013-03-02 10:36:00,
2013-03-02 05:37:00,22.5,18.9,30.13,NW,323,2.0,6.0,86,0.00,,,0.00,Wunderground v.1.15,2013-03-02 10:37:00,
2013-03-02 05:38:00,22.5,18.9,30.13,NNE,15,3.0,6.0,86,0.00,,,0.00,Wunderground v.1.15,2013-03-02 10:38:00,
2013-03-02 05:41:00,22.5,19.2,30.13,NW,324,0.0,2.0,87,0.00,,,0.00,Wunderground v.1.15,2013-03-02 10:41:00,
2013-03-02 05:42:00,22.5,19.2,30.13,NNW,330,1.0,2.0,87,0.00,,,0.00,Wunderground v.1.15,2013-03-02 10:42:00,
2013-03-02 05:43:00,22.5,19.2,30.13,West,280,0.0,5.0,87,0.00,,,0.00,Wunderground v.1.15,2013-03-02 10:43:00,
2013-03-02 05:46:00,22.5,19.2,30.13,NW,309,2.0,5.0,87,0.00,,,0.00,Wunderground v.1.15,2013-03-02 10:46:00,
2013-03-02 05:47:00,22.5,18.9,30.13,WNW,287,0.0,5.0,86,0.00,,,0.00,Wunderground v.1.15,2013-03-02 10:47:00,
2013-03-02 05:48:00,22.5,19.2,30.13,NNW,328,1.0,5.0,87,0.00,,,0.00,Wunderground v.1.15,2013-03-02 10:48:00,
2013-03-02 05:52:00,22.4,19.1,30.13,West,266,2.0,3.0,87,0.00,,,0.00,Wunderground v.1.15,2013-03-02 10:52:00,
2013-03-02 05:53:00,22.4,19.1,30.13,NNW,328,2.0,3.0,87,0.00,,,0.00,Wunderground v.1.15,2013-03-02 10:53:00,
2013-03-02 05:57:00,22.4,19.1,30.13,NW,319,2.0,6.0,87,0.00,,,0.00,Wunderground v.1.15,2013-03-02 10:57:00,
2013-03-02 05:58:00,22.3,19.0,30.13,North,5,1.0,6.0,87,0.00,,,0.00,Wunderground v.1.15,2013-03-02 10:58:00,
2013-03-02 05:59:00,22.3,19.0,30.13,NW,326,1.0,6.0,87,0.00,,,0.00,Wunderground v.1.15,2013-03-02 10:59:00,
2013-03-02 06:02:00,22.3,19.0,30.13,NNW,336,3.0,5.0,87,0.00,,,0.00,Wunderground v.1.15,2013-03-02 11:02:00,
2013-03-02 06:03:00,22.3,19.0,30.13,North,8,3.0,5.0,87,0.00,,,0.00,Wunderground v.1.15,2013-03-02 11:03:00,
2013-03-02 06:04:00,22.3,19.0,30.13,West,264,1.0,5.0,87,0.00,,,0.00,Wunderground v.1.15,2013-03-02 11:04:00,
2013-03-02 06:07:00,22.2,18.9,30.13,NW,315,2.0,6.0,87,0.00,,,0.00,Wunderground v.1.15,2013-03-02 11:07:00,
2013-03-02 06:08:00,22.2,18.9,30.13,NW,314,1.0,6.0,87,0.00,,,0.00,Wunderground v.1.15,2013-03-02 11:08:00,
2013-03-02 06:09:00,22.2,18.9,30.13,NW,324,3.0,6.0,87,0.00,,,0.00,Wunderground v.1.15,2013-03-02 11:09:00,
2013-03-02 06:12:00,22.2,18.9,30.13,WNW,283,2.0,5.0,87,0.00,,,0.00,Wunderground v.1.15,2013-03-02 11:12:00,
2013-03-02 06:13:00,22.2,18.9,30.13,NW,308,2.0,5.0,87,0.00,,,0.00,Wunderground v.1.15,2013-03-02 11:13:00,
2013-03-02 06:14:00,22.2,18.9,30.13,West,266,1.0,5.0,87,0.00,,,0.00,Wunderground v.1.15,2013-03-02 11:14:00,
2013-03-02 06:17:00,22.2,18.9,30.13,NW,305,4.0,5.0,87,0.00,,,0.00,Wunderground v.1.15,2013-03-02 11:17:00,
2013-03-02 06:18:00,22.2,18.9,30.13,NNE,22,4.0,5.0,87,0.00,,,0.00,Wunderground v.1.15,2013-03-02 11:18:00,
2013-03-02 06:19:00,22.2,18.9,30.13,NNW,348,2.0,5.0,87,0.00,,,0.00,Wunderground v.1.15,2013-03-02 11:19:00,
2013-03-02 06:23:00,22.2,18.9,30.13,NW,319,1.0,6.0,87,0.00,,,0.00,Wunderground v.1.15,2013-03-02 11:23:00,
2013-03-02 06:24:00,22.1,18.8,30.13,NNW,346,1.0,6.0,87,0.00,,,0.00,Wunderground v.1.15,2013-03-02 11:24:00,
2013-03-02 06:28:00,22.1,18.8,30.13,NW,313,2.0,7.0,87,0.00,,,0.00,Wunderground v.1.15,2013-03-02 11:28:00,
2013-03-02 06:29:00,22.1,18.8,30.13,WNW,288,2.0,7.0,87,0.00,,,0.00,Wunderground v.1.15,2013-03-02 11:29:00,
2013-03-02 06:33:00,22.1,18.8,30.13,NNE,29,2.0,6.0,87,0.00,,,0.00,Wunderground v.1.15,2013-03-02 11:33:00,
2013-03-02 06:34:00,22.1,18.8,30.13,WSW,249,2.0,6.0,87,0.00,,,0.00,Wunderground v.1.15,2013-03-02 11:34:00,
2013-03-02 06:38:00,22.1,18.8,30.13,West,276,1.0,6.0,87,0.00,,,0.00,Wunderground v.1.15,2013-03-02 11:38:00,
2013-03-02 06:40:00,22.1,18.8,30.13,West,268,1.0,2.0,87,0.00,,,0.00,Wunderground v.1.15,2013-03-02 11:40:00,
2013-03-02 06:43:00,22.1,18.8,30.13,NW,316,0.0,4.0,87,0.00,,,0.00,Wunderground v.1.15,2013-03-02 11:43:00,
2013-03-02 06:44:00,22.1,18.8,30.13,West,274,2.0,4.0,87,0.00,,,0.00,Wunderground v.1.15,2013-03-02 11:44:00,
2013-03-02 06:45:00,22.1,18.8,30.13,WNW,284,1.0,4.0,87,0.00,,,0.00,Wunderground v.1.15,2013-03-02 11:45:00,
2013-03-02 06:48:00,22.0,18.7,30.13,NW,314,2.0,4.0,87,0.00,,,0.00,Wunderground v.1.15,2013-03-02 11:48:00,
2013-03-02 06:49:00,22.0,18.7,30.13,NW,307,1.0,4.0,87,0.00,,,0.00,Wunderground v.1.15,2013-03-02 11:49:00,
2013-03-02 06:50:00,22.0,18.7,30.14,NNW,339,2.0,2.0,87,0.00,,,0.00,Wunderground v.1.15,2013-03-02 11:50:00,
2013-03-02 06:53:00,22.0,18.7,30.14,WNW,287,1.0,8.0,87,0.00,,,0.00,Wunderground v.1.15,2013-03-02 11:53:00,
2013-03-02 06:54:00,22.0,18.7,30.13,NW,316,1.0,8.0,87,0.00,,,0.00,Wunderground v.1.15,2013-03-02 11:54:00,
2013-03-02 06:55:00,22.0,18.7,30.13,North,6,3.0,8.0,87,0.00,,,0.00,Wunderground v.1.15,2013-03-02 11:55:00,
2013-03-02 06:59:00,22.0,18.7,30.14,NNW,334,1.0,8.0,87,0.00,,,0.00,Wunderground v.1.15,2013-03-02 11:59:00,
2013-03-02 07:00:00,22.0,18.7,30.14,North,11,4.0,5.0,87,0.00,,,0.00,Wunderground v.1.15,2013-03-02 12:00:00,
2013-03-02 07:04:00,22.0,18.7,30.14,WNW,282,1.0,5.0,87,0.00,,,0.00,Wunderground v.1.15,2013-03-02 12:04:00,
2013-03-02 07:05:00,22.0,18.7,30.14,WNW,290,1.0,5.0,87,0.00,,,0.00,Wunderground v.1.15,2013-03-02 12:05:00,
2013-03-02 07:09:00,22.0,18.7,30.14,NNE,18,1.0,5.0,87,0.00,,,0.00,Wunderground v.1.15,2013-03-02 12:09:00,
2013-03-02 07:10:00,22.0,18.7,30.14,ENE,58,2.0,2.0,87,0.00,,,0.00,Wunderground v.1.15,2013-03-02 12:10:00,
2013-03-02 07:15:00,22.0,18.7,30.14,NW,324,1.0,5.0,87,0.00,,,0.00,Wunderground v.1.15,2013-03-02 12:15:00,
2013-03-02 07:16:00,22.0,18.7,30.14,NW,307,0.0,5.0,87,0.00,,,0.00,Wunderground v.1.15,2013-03-02 12:16:00,
2013-03-02 07:20:00,22.0,18.7,30.14,NNE,12,2.0,2.0,87,0.00,,,0.00,Wunderground v.1.15,2013-03-02 12:20:00,
2013-03-02 07:21:00,22.0,18.7,30.14,North,356,0.0,2.0,87,0.00,,,0.00,Wunderground v.1.15,2013-03-02 12:21:00,
2013-03-02 07:25:00,22.0,18.7,30.14,NW,326,1.0,6.0,87,0.00,,,0.00,Wunderground v.1.15,2013-03-02 12:25:00,
2013-03-02 07:26:00,22.0,18.7,30.14,NW,322,3.0,6.0,87,0.00,,,0.00,Wunderground v.1.15,2013-03-02 12:26:00,
2013-03-02 07:30:00,22.0,18.7,30.14,WNW,303,2.0,2.0,87,0.00,,,0.00,Wunderground v.1.15,2013-03-02 12:30:00,
2013-03-02 07:31:00,22.0,18.7,30.14,NW,309,3.0,5.0,87,0.00,,,0.00,Wunderground v.1.15,2013-03-02 12:31:00,
2013-03-02 07:35:00,22.0,19.0,30.14,North,352,1.0,5.0,88,0.00,,,0.00,Wunderground v.1.15,2013-03-02 12:35:00,
2013-03-02 07:36:00,22.0,18.7,30.15,West,273,1.0,5.0,87,0.00,,,0.00,Wunderground v.1.15,2013-03-02 12:36:00,
2013-03-02 07:40:00,22.0,18.7,30.15,West,267,1.0,1.0,87,0.00,,,0.00,Wunderground v.1.15,2013-03-02 12:40:00,
2013-03-02 07:41:00,22.0,18.7,30.15,West,266,3.0,3.0,87,0.00,,,0.00,Wunderground v.1.15,2013-03-02 12:41:00,
2013-03-02 07:45:00,22.0,18.7,30.15,NW,305,2.0,4.0,87,0.00,,,0.00,Wunderground v.1.15,2013-03-02 12:45:00,
2013-03-02 07:46:00,22.0,18.7,30.15,NW,308,1.0,4.0,87,0.00,,,0.00,Wunderground v.1.15,2013-03-02 12:46:00,
2013-03-02 07:47:00,22.0,19.0,30.15,West,274,1.0,4.0,88,0.00,,,0.00,Wunderground v.1.15,2013-03-02 12:47:00,
2013-03-02 07:50:00,22.0,18.7,30.15,WNW,302,1.0,2.0,87,0.00,,,0.00,Wunderground v.1.15,2013-03-02 12:50:00,
2013-03-02 07:51:00,22.0,18.7,30.15,NW,308,1.0,2.0,87,0.00,,,0.00,Wunderground v.1.15,2013-03-02 12:51:00,
2013-03-02 07:52:00,22.0,18.7,30.15,NW,307,0.0,2.0,87,0.00,,,0.00,Wunderground v.1.15,2013-03-02 12:52:00,
2013-03-02 07:55:00,22.0,19.0,30.15,West,281,1.0,3.0,88,0.00,,,0.00,Wunderground v.1.15,2013-03-02 12:55:00,
2013-03-02 07:56:00,22.0,19.0,30.15,NW,323,2.0,3.0,88,0.00,,,0.00,Wunderground v.1.15,2013-03-02 12:56:00,
2013-03-02 07:57:00,22.0,19.0,30.15,NW,311,2.0,3.0,88,0.00,,,0.00,Wunderground v.1.15,2013-03-02 12:57:00,
2013-03-02 08:01:00,22.0,19.0,30.15,WNW,294,0.0,1.0,88,0.00,,,0.00,Wunderground v.1.15,2013-03-02 13:01:00,
2013-03-02 08:02:00,22.0,19.0,30.15,West,266,3.0,5.0,88,0.00,,,0.00,Wunderground v.1.15,2013-03-02 13:02:00,
2013-03-02 08:06:00,21.9,18.6,30.15,WNW,297,2.0,5.0,87,0.00,,,0.00,Wunderground v.1.15,2013-03-02 13:06:00,
2013-03-02 08:07:00,21.9,18.6,30.15,West,263,1.0,5.0,87,0.00,,,0.00,Wunderground v.1.15,2013-03-02 13:07:00,
2013-03-02 08:11:00,21.9,18.9,30.15,WNW,285,1.0,2.0,88,0.00,,,0.00,Wunderground v.1.15,2013-03-02 13:11:00,
2013-03-02 08:12:00,21.9,18.9,30.15,NNW,332,3.0,5.0,88,0.00,,,0.00,Wunderground v.1.15,2013-03-02 13:12:00,
2013-03-02 08:16:00,21.8,18.8,30.15,WNW,301,2.0,6.0,88,0.00,,,0.00,Wunderground v.1.15,2013-03-02 13:16:00,
2013-03-02 08:17:00,21.8,18.8,30.15,NNW,332,1.0,6.0,88,0.00,,,0.00,Wunderground v.1.15,2013-03-02 13:17:00,
2013-03-02 08:18:00,21.8,18.8,30.15,NW,319,1.0,6.0,88,0.00,,,0.00,Wunderground v.1.15,2013-03-02 13:18:00,
2013-03-02 08:21:00,21.8,18.8,30.15,NE,42,2.0,6.0,88,0.00,,,0.00,Wunderground v.1.15,2013-03-02 13:21:00,
2013-03-02 08:22:00,21.8,18.8,30.15,NW,315,1.0,6.0,88,0.00,,,0.00,Wunderground v.1.15,2013-03-02 13:22:00,
2013-03-02 08:23:00,21.8,18.8,30.15,NW,317,1.0,6.0,88,0.00,,,0.00,Wunderground v.1.15,2013-03-02 13:23:00,
2013-03-02 08:26:00,21.8,18.8,30.15,NW,307,2.0,6.0,88,0.00,,,0.00,Wunderground v.1.15,2013-03-02 13:26:00,
2013-03-02 08:27:00,21.8,18.8,30.15,NW,314,1.0,6.0,88,0.00,,,0.00,Wunderground v.1.15,2013-03-02 13:27:00,
2013-03-02 08:28:00,21.8,18.8,30.15,NW,314,0.0,6.0,88,0.00,,,0.00,Wunderground v.1.15,2013-03-02 13:28:00,
2013-03-02 08:31:00,21.8,18.8,30.15,NW,309,2.0,4.0,88,0.00,,,0.00,Wunderground v.1.15,2013-03-02 13:31:00,
2013-03-02 08:33:00,21.8,18.8,30.15,NW,307,0.0,4.0,88,0.00,,,0.00,Wunderground v.1.15,2013-03-02 13:33:00,
2013-03-02 08:37:00,21.8,18.8,30.15,NW,314,1.0,5.0,88,0.00,,,0.00,Wunderground v.1.15,2013-03-02 13:37:00,
2013-03-02 08:38:00,21.8,18.8,30.15,NW,309,1.0,5.0,88,0.00,,,0.00,Wunderground v.1.15,2013-03-02 13:38:00,
2013-03-02 08:42:00,21.9,18.9,30.15,NW,307,1.0,4.0,88,0.00,,,0.00,Wunderground v.1.15,2013-03-02 13:42:00,
2013-03-02 08:43:00,21.8,18.8,30.15,NW,326,1.0,4.0,88,0.00,,,0.00,Wunderground v.1.15,2013-03-02 13:43:00,
2013-03-02 08:44:00,21.9,18.9,30.15,NW,326,1.0,4.0,88,0.00,,,0.00,Wunderground v.1.15,2013-03-02 13:44:00,
2013-03-02 08:47:00,21.9,18.9,30.15,WNW,290,2.0,5.0,88,0.00,,,0.00,Wunderground v.1.15,2013-03-02 13:47:00,
2013-03-02 08:48:00,21.9,18.9,30.15,NW,318,2.0,5.0,88,0.00,,,0.00,Wunderground v.1.15,2013-03-02 13:48:00,
2013-03-02 08:49:00,21.9,18.9,30.15,West,275,1.0,5.0,88,0.00,,,0.00,Wunderground v.1.15,2013-03-02 13:49:00,
2013-03-02 08:52:00,21.9,18.9,30.15,NW,304,3.0,4.0,88,0.00,,,0.00,Wunderground v.1.15,2013-03-02 13:52:00,
2013-03-02 08:53:00,21.9,18.9,30.15,NW,321,1.0,4.0,88,0.00,,,0.00,Wunderground v.1.15,2013-03-02 13:53:00,
2013-03-02 08:54:00,21.9,18.9,30.15,NW,320,0.0,4.0,88,0.00,,,0.00,Wunderground v.1.15,2013-03-02 13:54:00,
2013-03-02 08:57:00,21.9,18.9,30.15,NW,304,0.0,5.0,88,0.00,,,0.00,Wunderground v.1.15,2013-03-02 13:57:00,
2013-03-02 08:58:00,22.0,19.0,30.16,NW,316,2.0,5.0,88,0.00,,,0.00,Wunderground v.1.15,2013-03-02 13:58:00,
2013-03-02 09:00:00,22.0,19.0,30.16,NW,319,2.0,2.0,88,0.00,,,0.00,Wunderground v.1.15,2013-03-02 14:00:00,
2013-03-02 09:02:00,22.0,19.0,30.15,NW,316,5.0,5.0,88,0.00,,,0.00,Wunderground v.1.15,2013-03-02 14:02:00,
2013-03-02 09:03:00,22.0,19.0,30.15,NW,313,3.0,5.0,88,0.00,,,0.00,Wunderground v.1.15,2013-03-02 14:03:00,
2013-03-02 09:05:00,22.0,19.0,30.15,NW,305,1.0,5.0,88,0.00,,,0.00,Wunderground v.1.15,2013-03-02 14:05:00,
2013-03-02 09:07:00,22.1,19.1,30.15,NW,325,1.0,5.0,88,0.00,,,0.00,Wunderground v.1.15,2013-03-02 14:07:00,
2013-03-02 09:08:00,22.1,19.1,30.16,NW,322,1.0,5.0,88,0.00,,,0.00,Wunderground v.1.15,2013-03-02 14:08:00,
2013-03-02 09:11:00,22.2,19.2,30.15,West,277,3.0,3.0,88,0.00,,,0.00,Wunderground v.1.15,2013-03-02 14:11:00,
2013-03-02 09:12:00,22.2,19.2,30.15,WNW,293,0.0,3.0,88,0.00,,,0.00,Wunderground v.1.15,2013-03-02 14:12:00,
2013-03-02 09:13:00,22.2,19.2,30.15,West,280,1.0,3.0,88,0.00,,,0.00,Wunderground v.1.15,2013-03-02 14:13:00,
2013-03-02 09:14:00,22.2,19.2,30.15,NW,307,1.0,3.0,88,0.00,,,0.00,Wunderground v.1.15,2013-03-02 14:14:00,
2013-03-02 09:16:00,22.3,19.3,30.15,NNW,345,0.0,3.0,88,0.00,,,0.00,Wunderground v.1.15,2013-03-02 14:16:00,
2013-03-02 09:17:00,22.3,19.3,30.15,NNW,329,1.0,3.0,88,0.00,,,0.00,Wunderground v.1.15,2013-03-02 14:17:00,
2013-03-02 09:18:00,22.3,19.3,30.15,NNE,13,2.0,3.0,88,0.00,,,0.00,Wunderground v.1.15,2013-03-02 14:18:00,
2013-03-02 09:19:00,22.3,19.3,30.15,NW,323,1.0,3.0,88,0.00,,,0.00,Wunderground v.1.15,2013-03-02 14:19:00,
2013-03-02 09:21:00,22.4,19.4,30.15,NW,305,0.0,1.0,88,0.00,,,0.00,Wunderground v.1.15,2013-03-02 14:21:00,
2013-03-02 09:22:00,22.4,19.4,30.15,West,278,1.0,10.0,88,0.00,,,0.00,Wunderground v.1.15,2013-03-02 14:22:00,
2013-03-02 09:24:00,22.4,19.4,30.15,WSW,250,2.0,10.0,88,0.00,,,0.00,Wunderground v.1.15,2013-03-02 14:24:00,
2013-03-02 09:26:00,22.4,19.4,30.15,NW,318,2.0,10.0,88,0.00,,,0.00,Wunderground v.1.15,2013-03-02 14:26:00,
2013-03-02 09:28:00,22.3,19.3,30.15,WNW,290,0.0,10.0,88,0.00,,,0.00,Wunderground v.1.15,2013-03-02 14:28:00,
2013-03-02 09:29:00,22.4,19.4,30.15,NNE,12,3.0,10.0,88,0.00,,,0.00,Wunderground v.1.15,2013-03-02 14:29:00,
2013-03-02 09:31:00,22.3,19.3,30.15,West,259,0.0,4.0,88,0.00,,,0.00,Wunderground v.1.15,2013-03-02 14:31:00,
2013-03-02 09:33:00,22.3,19.3,30.15,NNE,30,4.0,8.0,88,0.00,,,0.00,Wunderground v.1.15,2013-03-02 14:33:00,
2013-03-02 09:34:00,22.3,19.3,30.15,ENE,60,2.0,8.0,88,0.00,,,0.00,Wunderground v.1.15,2013-03-02 14:34:00,
2013-03-02 09:36:00,22.3,19.3,30.15,NW,319,0.0,8.0,88,0.00,,,0.00,Wunderground v.1.15,2013-03-02 14:36:00,
2013-03-02 09:38:00,22.4,19.4,30.15,NW,310,2.0,8.0,88,0.00,,,0.00,Wunderground v.1.15,2013-03-02 14:38:00,
2013-03-02 09:39:00,22.4,19.4,30.15,NW,314,1.0,8.0,88,0.00,,,0.00,Wunderground v.1.15,2013-03-02 14:39:00,
2013-03-02 09:41:00,22.4,19.4,30.16,WNW,298,0.0,4.0,88,0.00,,,0.00,Wunderground v.1.15,2013-03-02 14:41:00,
2013-03-02 09:43:00,22.4,19.4,30.16,WNW,295,1.0,4.0,88,0.00,,,0.00,Wunderground v.1.15,2013-03-02 14:43:00,
2013-03-02 09:44:00,22.4,19.4,30.16,NNW,327,3.0,4.0,88,0.00,,,0.00,Wunderground v.1.15,2013-03-02 14:44:00,
2013-03-02 09:46:00,22.4,19.4,30.16,NW,314,2.0,5.0,88,0.00,,,0.00,Wunderground v.1.15,2013-03-02 14:46:00,
2013-03-02 09:48:00,22.4,19.4,30.16,NW,324,3.0,6.0,88,0.00,,,0.00,Wunderground v.1.15,2013-03-02 14:48:00,
2013-03-02 09:50:00,22.4,19.4,30.16,WNW,300,2.0,2.0,88,0.00,,,0.00,Wunderground v.1.15,2013-03-02 14:50:00,
2013-03-02 09:51:00,22.4,19.4,30.16,NNE,33,1.0,4.0,88,0.00,,,0.00,Wunderground v.1.15,2013-03-02 14:51:00,
2013-03-02 09:53:00,22.4,19.4,30.16,WNW,302,1.0,6.0,88,0.00,,,0.00,Wunderground v.1.15,2013-03-02 14:53:00,
2013-03-02 09:55:00,22.4,19.4,30.16,NNW,338,1.0,6.0,88,0.00,,,0.00,Wunderground v.1.15,2013-03-02 14:55:00,
2013-03-02 09:56:00,22.4,19.4,30.16,WNW,297,1.0,6.0,88,0.00,,,0.00,Wunderground v.1.15,2013-03-02 14:56:00,
2013-03-02 09:58:00,22.5,19.5,30.16,NW,310,1.0,6.0,88,0.00,,,0.00,Wunderground v.1.15,2013-03-02 14:58:00,
2013-03-02 10:00:00,22.6,19.6,30.16,NW,305,1.0,4.0,88,0.00,,,0.00,Wunderground v.1.15,2013-03-02 15:00:00,
2013-03-02 10:01:00,22.5,19.5,30.16,NW,315,6.0,6.0,88,0.00,,,0.00,Wunderground v.1.15,2013-03-02 15:01:00,
2013-03-02 10:04:00,22.5,19.5,30.16,NNE,28,2.0,6.0,88,0.00,,,0.00,Wunderground v.1.15,2013-03-02 15:04:00,
2013-03-02 10:05:00,22.5,19.5,30.16,NE,46,3.0,7.0,88,0.00,,,0.00,Wunderground v.1.15,2013-03-02 15:05:00,
2013-03-02 10:07:00,22.5,19.5,30.16,WNW,284,1.0,7.0,88,0.00,,,0.00,Wunderground v.1.15,2013-03-02 15:07:00,
2013-03-02 10:09:00,22.5,19.5,30.16,West,273,0.0,7.0,88,0.00,,,0.00,Wunderground v.1.15,2013-03-02 15:09:00,
2013-03-02 10:10:00,22.5,19.5,30.16,NNE,24,1.0,2.0,88,0.00,,,0.00,Wunderground v.1.15,2013-03-02 15:10:00,
2013-03-02 10:11:00,22.6,19.6,30.16,NNE,22,1.0,2.0,88,0.00,,,0.00,Wunderground v.1.15,2013-03-02 15:11:00,
2013-03-02 10:12:00,22.6,19.6,30.16,NNW,345,1.0,2.0,88,0.00,,,0.00,Wunderground v.1.15,2013-03-02 15:12:00,
2013-03-02 10:14:00,22.6,19.6,30.15,NW,316,1.0,2.0,88,0.00,,,0.00,Wunderground v.1.15,2013-03-02 15:14:00,
2013-03-02 10:15:00,22.7,19.7,30.16,WNW,289,1.0,4.0,88,0.00,,,0.00,Wunderground v.1.15,2013-03-02 15:15:00,
2013-03-02 10:18:00,22.7,19.7,30.15,NW,322,2.0,4.0,88,0.00,,,0.00,Wunderground v.1.15,2013-03-02 15:18:00,
2013-03-02 10:19:00,22.7,19.7,30.15,West,280,1.0,4.0,88,0.00,,,0.00,Wunderground v.1.15,2013-03-02 15:19:00,
2013-03-02 10:21:00,22.8,19.8,30.15,NW,322,2.0,4.0,88,0.00,,,0.00,Wunderground v.1.15,2013-03-02 15:21:00,
2013-03-02 10:23:00,22.8,19.8,30.15,North,5,0.0,4.0,88,0.00,,,0.00,Wunderground v.1.15,2013-03-02 15:23:00,
2013-03-02 10:24:00,22.8,19.8,30.15,North,6,1.0,4.0,88,0.00,,,0.00,Wunderground v.1.15,2013-03-02 15:24:00,
2013-03-02 10:26:00,22.8,19.8,30.15,NNW,332,1.0,4.0,88,0.00,,,0.00,Wunderground v.1.15,2013-03-02 15:26:00,
2013-03-02 10:28:00,22.9,19.6,30.15,NW,311,2.0,5.0,87,0.00,,,0.00,Wunderground v.1.15,2013-03-02 15:28:00,
2013-03-02 10:29:00,22.9,19.6,30.15,NNW,342,3.0,5.0,87,0.00,,,0.00,Wunderground v.1.15,2013-03-02 15:29:00,
2013-03-02 10:31:00,22.8,19.5,30.15,NW,312,1.0,2.0,87,0.00,,,0.00,Wunderground v.1.15,2013-03-02 15:31:00,
2013-03-02 10:33:00,22.8,19.5,30.15,NW,322,3.0,6.0,87,0.00,,,0.00,Wunderground v.1.15,2013-03-02 15:33:00,
2013-03-02 10:34:00,22.8,19.5,30.15,NW,314,1.0,6.0,87,0.00,,,0.00,Wunderground v.1.15,2013-03-02 15:34:00,
2013-03-02 10:36:00,22.8,19.5,30.15,NNW,347,2.0,6.0,87,0.00,,,0.00,Wunderground v.1.15,2013-03-02 15:36:00,
2013-03-02 10:38:00,22.7,19.4,30.15,NW,304,2.0,9.0,87,0.00,,,0.00,Wunderground v.1.15,2013-03-02 15:38:00,
2013-03-02 10:39:00,22.7,19.4,30.15,North,356,1.0,3.0,87,0.00,,,0.00,Wunderground v.1.15,2013-03-02 15:39:00,
2013-03-02 10:41:00,22.7,19.4,30.15,NNW,346,3.0,4.0,87,0.00,,,0.00,Wunderground v.1.15,2013-03-02 15:41:00,
2013-03-02 10:44:00,22.8,19.5,30.15,NNE,24,3.0,4.0,87,0.00,,,0.00,Wunderground v.1.15,2013-03-02 15:44:00,
2013-03-02 10:45:00,22.8,19.5,30.15,NW,322,0.0,4.0,87,0.00,,,0.00,Wunderground v.1.15,2013-03-02 15:45:00,
2013-03-02 10:46:00,22.8,19.5,30.15,North,356,6.0,6.0,87,0.00,,,0.00,Wunderground v.1.15,2013-03-02 15:46:00,
2013-03-02 10:49:00,22.8,19.5,30.15,NNW,345,2.0,6.0,87,0.00,,,0.00,Wunderground v.1.15,2013-03-02 15:49:00,
2013-03-02 10:50:00,22.9,19.6,30.15,NNW,339,0.0,2.0,87,0.00,,,0.00,Wunderground v.1.15,2013-03-02 15:50:00,
2013-03-02 10:51:00,22.9,19.6,30.15,NW,326,2.0,5.0,87,0.00,,,0.00,Wunderground v.1.15,2013-03-02 15:51:00,
2013-03-02 10:52:00,22.9,19.6,30.15,North,8,2.0,5.0,87,0.00,,,0.00,Wunderground v.1.15,2013-03-02 15:52:00,
2013-03-02 10:54:00,22.9,19.6,30.15,NW,326,3.0,6.0,87,0.00,,,0.00,Wunderground v.1.15,2013-03-02 15:54:00,
2013-03-02 10:55:00,22.9,19.6,30.15,WNW,302,2.0,6.0,87,0.00,,,0.00,Wunderground v.1.15,2013-03-02 15:55:00,
2013-03-02 10:57:00,22.9,19.6,30.15,NNW,333,1.0,6.0,87,0.00,,,0.00,Wunderground v.1.15,2013-03-02 15:57:00,
2013-03-02 11:00:00,22.9,19.6,30.15,NW,322,1.0,2.0,87,0.00,,,0.00,Wunderground v.1.15,2013-03-02 16:00:00,
2013-03-02 11:02:00,23.0,19.7,30.15,WNW,287,1.0,2.0,87,0.00,,,0.00,Wunderground v.1.15,2013-03-02 16:02:00,
2013-03-02 11:05:00,23.1,19.8,30.15,WNW,294,2.0,4.0,87,0.00,,,0.00,Wunderground v.1.15,2013-03-02 16:05:00,
2013-03-02 11:06:00,23.1,19.8,30.15,ENE,69,2.0,4.0,87,0.00,,,0.00,Wunderground v.1.15,2013-03-02 16:06:00,
2013-03-02 11:07:00,23.1,19.8,30.16,North,4,7.0,7.0,87,0.00,,,0.00,Wunderground v.1.15,2013-03-02 16:07:00,
2013-03-02 11:10:00,23.1,19.8,30.15,NW,314,2.0,2.0,87,0.00,,,0.00,Wunderground v.1.15,2013-03-02 16:10:00,
2013-03-02 11:11:00,23.1,19.8,30.15,NNW,332,3.0,4.0,87,0.00,,,0.00,Wunderground v.1.15,2013-03-02 16:11:00,
2013-03-02 11:12:00,23.1,19.8,30.15,NNW,336,2.0,4.0,87,0.00,,,0.00,Wunderground v.1.15,2013-03-02 16:12:00,
2013-03-02 11:15:00,23.1,19.8,30.15,ENE,74,1.0,4.0,87,0.00,,,0.00,Wunderground v.1.15,2013-03-02 16:15:00,
2013-03-02 11:16:00,23.2,19.9,30.15,WNW,284,2.0,6.0,87,0.00,,,0.00,Wunderground v.1.15,2013-03-02 16:16:00,
2013-03-02 11:17:00,23.2,19.9,30.15,NNW,329,2.0,6.0,87,0.00,,,0.00,Wunderground v.1.15,2013-03-02 16:17:00,
2013-03-02 11:20:00,23.3,20.0,30.15,NNW,347,2.0,2.0,87,0.00,,,0.00,Wunderground v.1.15,2013-03-02 16:20:00,
2013-03-02 11:22:00,23.4,20.1,30.15,NE,44,0.0,2.0,87,0.00,,,0.00,Wunderground v.1.15,2013-03-02 16:22:00,
2013-03-02 11:25:00,23.6,20.3,30.15,West,273,0.0,3.0,87,0.00,,,0.00,Wunderground v.1.15,2013-03-02 16:25:00,
2013-03-02 11:27:00,23.6,20.0,30.15,NNE,32,5.0,5.0,86,0.00,,,0.00,Wunderground v.1.15,2013-03-02 16:27:00,
2013-03-02 11:30:00,23.6,20.0,30.15,NNW,330,1.0,2.0,86,0.00,,,0.00,Wunderground v.1.15,2013-03-02 16:30:00,
2013-03-02 11:32:00,23.7,20.1,30.15,NE,43,0.0,2.0,86,0.00,,,0.00,Wunderground v.1.15,2013-03-02 16:32:00,
2013-03-02 11:35:00,23.7,20.1,30.15,WNW,302,1.0,8.0,86,0.00,,,0.00,Wunderground v.1.15,2013-03-02 16:35:00,
2013-03-02 11:37:00,23.8,20.2,30.15,West,262,0.0,8.0,86,0.00,,,0.00,Wunderground v.1.15,2013-03-02 16:37:00,
2013-03-02 11:41:00,23.9,20.0,30.15,NW,312,2.0,5.0,85,0.00,,,0.00,Wunderground v.1.15,2013-03-02 16:41:00,
2013-03-02 11:42:00,23.9,20.0,30.15,NW,305,2.0,6.0,85,0.00,,,0.00,Wunderground v.1.15,2013-03-02 16:42:00,
2013-03-02 11:43:00,23.9,20.0,30.15,NW,305,2.0,6.0,85,0.00,,,0.00,Wunderground v.1.15,2013-03-02 16:43:00,
2013-03-02 11:46:00,23.9,20.0,30.15,NNW,333,2.0,6.0,85,0.00,,,0.00,Wunderground v.1.15,2013-03-02 16:46:00,
2013-03-02 11:47:00,24.0,20.1,30.15,NW,321,3.0,6.0,85,0.00,,,0.00,Wunderground v.1.15,2013-03-02 16:47:00,
2013-03-02 11:48:00,24.0,20.1,30.15,NNW,339,5.0,8.0,85,0.00,,,0.00,Wunderground v.1.15,2013-03-02 16:48:00,
2013-03-02 11:51:00,24.0,19.9,30.15,NNW,328,2.0,3.0,84,0.00,,,0.00,Wunderground v.1.15,2013-03-02 16:51:00,
2013-03-02 11:52:00,24.1,20.2,30.15,NW,310,1.0,3.0,85,0.00,,,0.00,Wunderground v.1.15,2013-03-02 16:52:00,
2013-03-02 11:53:00,24.1,20.2,30.15,NW,322,2.0,3.0,85,0.00,,,0.00,Wunderground v.1.15,2013-03-02 16:53:00,
2013-03-02 11:56:00,24.1,20.0,30.15,WNW,302,0.0,7.0,84,0.00,,,0.00,Wunderground v.1.15,2013-03-02 16:56:00,
2013-03-02 11:58:00,24.2,20.1,30.15,North,356,1.0,7.0,84,0.00,,,0.00,Wunderground v.1.15,2013-03-02 16:58:00,
2013-03-02 12:01:00,24.3,20.2,30.15,West,281,1.0,2.0,84,0.00,,,0.00,Wunderground v.1.15,2013-03-02 17:01:00,
2013-03-02 12:03:00,24.3,20.2,30.15,NNW,336,1.0,5.0,84,0.00,,,0.00,Wunderground v.1.15,2013-03-02 17:03:00,
2013-03-02 12:06:00,24.4,20.0,30.15,NW,304,2.0,8.0,83,0.00,,,0.00,Wunderground v.1.15,2013-03-02 17:06:00,
2013-03-02 12:08:00,24.4,19.7,30.15,NW,314,5.0,8.0,82,0.00,,,0.00,Wunderground v.1.15,2013-03-02 17:08:00,
2013-03-02 12:09:00,24.4,19.7,30.15,West,274,2.0,8.0,82,0.00,,,0.00,Wunderground v.1.15,2013-03-02 17:09:00,
2013-03-02 12:12:00,24.3,19.6,30.15,WSW,252,2.0,6.0,82,0.00,,,0.00,Wunderground v.1.15,2013-03-02 17:12:00,
2013-03-02 12:13:00,24.2,19.5,30.15,WSW,258,3.0,6.0,82,0.00,,,0.00,Wunderground v.1.15,2013-03-02 17:13:00,
2013-03-02 12:14:00,24.3,19.6,30.15,WNW,301,2.0,6.0,82,0.00,,,0.00,Wunderground v.1.15,2013-03-02 17:14:00,
2013-03-02 12:17:00,24.3,19.9,30.15,West,274,2.0,6.0,83,0.00,,,0.00,Wunderground v.1.15,2013-03-02 17:17:00,
2013-03-02 12:18:00,24.4,19.7,30.15,North,355,0.0,6.0,82,0.00,,,0.00,Wunderground v.1.15,2013-03-02 17:18:00,
2013-03-02 12:19:00,24.3,19.6,30.15,NW,319,0.0,6.0,82,0.00,,,0.00,Wunderground v.1.15,2013-03-02 17:19:00,
2013-03-02 12:22:00,24.4,19.7,30.15,NW,304,2.0,4.0,82,0.00,,,0.00,Wunderground v.1.15,2013-03-02 17:22:00,
2013-03-02 12:23:00,24.5,19.8,30.15,NW,314,2.0,4.0,82,0.00,,,0.00,Wunderground v.1.15,2013-03-02 17:23:00,
2013-03-02 12:24:00,24.4,19.7,30.15,West,278,2.0,4.0,82,0.00,,,0.00,Wunderground v.1.15,2013-03-02 17:24:00,
2013-03-02 12:27:00,24.4,19.7,30.15,North,354,5.0,6.0,82,0.00,,,0.00,Wunderground v.1.15,2013-03-02 17:27:00,
2013-03-02 12:28:00,24.4,19.7,30.15,WNW,300,3.0,10.0,82,0.00,,,0.00,Wunderground v.1.15,2013-03-02 17:28:00,
2013-03-02 12:29:00,24.3,19.6,30.15,NW,307,3.0,10.0,82,0.00,,,0.00,Wunderground v.1.15,2013-03-02 17:29:00,
2013-03-02 12:32:00,24.2,19.5,30.15,NW,322,3.0,8.0,82,0.00,,,0.00,Wunderground v.1.15,2013-03-02 17:32:00,
2013-03-02 12:34:00,24.1,19.4,30.15,NW,304,2.0,10.0,82,0.00,,,0.00,Wunderground v.1.15,2013-03-02 17:34:00,
2013-03-02 12:37:00,24.0,19.3,30.15,NW,304,4.0,10.0,82,0.00,,,0.00,Wunderground v.1.15,2013-03-02 17:37:00,
2013-03-02 12:39:00,23.9,19.2,30.15,NW,312,7.0,10.0,82,0.00,,,0.00,Wunderground v.1.15,2013-03-02 17:39:00,
2013-03-02 12:42:00,23.9,19.2,30.14,WNW,303,1.0,6.0,82,0.00,,,0.00,Wunderground v.1.15,2013-03-02 17:42:00,
2013-03-02 12:44:00,23.9,19.2,30.14,North,8,1.0,6.0,82,0.00,,,0.00,Wunderground v.1.15,2013-03-02 17:44:00,
2013-03-02 12:45:00,23.9,19.5,30.14,WNW,285,1.0,6.0,83,0.00,,,0.00,Wunderground v.1.15,2013-03-02 17:45:00,
2013-03-02 12:47:00,24.0,19.3,30.14,NW,313,2.0,8.0,82,0.00,,,0.00,Wunderground v.1.15,2013-03-02 17:47:00,
2013-03-02 12:49:00,24.0,19.3,30.14,NW,310,4.0,8.0,82,0.00,,,0.00,Wunderground v.1.15,2013-03-02 17:49:00,
2013-03-02 12:50:00,23.9,19.2,30.14,NNW,337,4.0,4.0,82,0.00,,,0.00,Wunderground v.1.15,2013-03-02 17:50:00,
2013-03-02 12:52:00,23.9,19.2,30.14,NW,304,1.0,5.0,82,0.00,,,0.00,Wunderground v.1.15,2013-03-02 17:52:00,
2013-03-02 12:54:00,23.9,19.5,30.14,NNW,328,4.0,5.0,83,0.00,,,0.00,Wunderground v.1.15,2013-03-02 17:54:00,
2013-03-02 12:55:00,23.9,19.5,30.14,North,5,3.0,5.0,83,0.00,,,0.00,Wunderground v.1.15,2013-03-02 17:55:00,
2013-03-02 12:57:00,23.9,19.5,30.14,WNW,284,1.0,5.0,83,0.00,,,0.00,Wunderground v.1.15,2013-03-02 17:57:00,
2013-03-02 12:59:00,24.0,19.6,30.14,NW,312,5.0,5.0,83,0.00,,,0.00,Wunderground v.1.15,2013-03-02 17:59:00,
2013-03-02 13:00:00,24.0,19.6,30.14,NW,320,3.0,5.0,83,0.00,,,0.00,Wunderground v.1.15,2013-03-02 18:00:00,
2013-03-02 13:02:00,24.0,19.6,30.14,NE,43,3.0,8.0,83,0.00,,,0.00,Wunderground v.1.15,2013-03-02 18:02:00,
2013-03-02 13:05:00,24.0,19.6,30.14,WSW,250,2.0,8.0,83,0.00,,,0.00,Wunderground v.1.15,2013-03-02 18:05:00,
2013-03-02 13:07:00,24.0,19.6,30.14,NW,305,1.0,8.0,83,0.00,,,0.00,Wunderground v.1.15,2013-03-02 18:07:00,
2013-03-02 13:10:00,24.0,19.6,30.14,NW,322,4.0,5.0,83,0.00,,,0.00,Wunderground v.1.15,2013-03-02 18:10:00,
2013-03-02 13:13:00,24.0,19.6,30.14,NW,316,2.0,5.0,83,0.00,,,0.00,Wunderground v.1.15,2013-03-02 18:13:00,
2013-03-02 13:15:00,24.0,19.6,30.14,NW,316,1.0,6.0,83,0.00,,,0.00,Wunderground v.1.15,2013-03-02 18:15:00,
2013-03-02 13:16:00,24.0,19.6,30.14,NE,39,7.0,7.0,83,0.00,,,0.00,Wunderground v.1.15,2013-03-02 18:16:00,
2013-03-02 13:18:00,24.0,19.6,30.13,NW,319,2.0,7.0,83,0.00,,,0.00,Wunderground v.1.15,2013-03-02 18:18:00,
2013-03-02 13:20:00,24.0,19.6,30.13,WNW,283,3.0,4.0,83,0.00,,,0.00,Wunderground v.1.15,2013-03-02 18:20:00,
2013-03-02 13:21:00,24.0,19.6,30.13,WNW,295,2.0,4.0,83,0.00,,,0.00,Wunderground v.1.15,2013-03-02 18:21:00,
2013-03-02 13:23:00,23.9,19.5,30.13,ENE,63,2.0,7.0,83,0.00,,,0.00,Wunderground v.1.15,2013-03-02 18:23:00,
2013-03-02 13:25:00,23.8,19.4,30.13,WSW,241,1.0,7.0,83,0.00,,,0.00,Wunderground v.1.15,2013-03-02 18:25:00,
2013-03-02 13:26:00,23.9,19.5,30.13,ENE,57,0.0,7.0,83,0.00,,,0.00,Wunderground v.1.15,2013-03-02 18:26:00,
2013-03-02 13:28:00,23.9,19.5,30.13,WNW,295,2.0,7.0,83,0.00,,,0.00,Wunderground v.1.15,2013-03-02 18:28:00,
2013-03-02 13:30:00,23.9,19.5,30.13,North,4,3.0,3.0,83,0.00,,,0.00,Wunderground v.1.15,2013-03-02 18:30:00,
2013-03-02 13:31:00,23.9,19.5,30.13,West,274,1.0,3.0,83,0.00,,,0.00,Wunderground v.1.15,2013-03-02 18:31:00,
2013-03-02 13:33:00,23.9,19.5,30.13,WNW,285,0.0,3.0,83,0.00,,,0.00,Wunderground v.1.15,2013-03-02 18:33:00,
2013-03-02 13:35:00,23.9,19.5,30.13,NNE,18,5.0,9.0,83,0.00,,,0.00,Wunderground v.1.15,2013-03-02 18:35:00,
2013-03-02 13:36:00,23.9,19.5,30.13,WNW,302,4.0,9.0,83,0.00,,,0.00,Wunderground v.1.15,2013-03-02 18:36:00,
2013-03-02 13:38:00,23.8,19.4,30.13,NW,320,3.0,9.0,83,0.00,,,0.00,Wunderground v.1.15,2013-03-02 18:38:00,
2013-03-02 13:40:00,23.8,19.4,30.13,North,353,2.0,7.0,83,0.00,,,0.00,Wunderground v.1.15,2013-03-02 18:40:00,
2013-03-02 13:41:00,23.8,19.4,30.13,NNW,340,3.0,7.0,83,0.00,,,0.00,Wunderground v.1.15,2013-03-02 18:41:00,
2013-03-02 13:43:00,23.8,19.4,30.13,West,271,1.0,7.0,83,0.00,,,0.00,Wunderground v.1.15,2013-03-02 18:43:00,
2013-03-02 13:46:00,23.8,19.4,30.13,NNE,12,4.0,7.0,83,0.00,,,0.00,Wunderground v.1.15,2013-03-02 18:46:00,
2013-03-02 13:48:00,23.8,19.4,30.13,WSW,258,1.0,7.0,83,0.00,,,0.00,Wunderground v.1.15,2013-03-02 18:48:00,
2013-03-02 13:51:00,23.9,19.5,30.13,West,266,2.0,2.0,83,0.00,,,0.00,Wunderground v.1.15,2013-03-02 18:51:00,
2013-03-02 13:52:00,23.9,19.8,30.13,WNW,301,7.0,7.0,84,0.00,,,0.00,Wunderground v.1.15,2013-03-02 18:52:00,
2013-03-02 13:53:00,23.9,19.5,30.13,WNW,303,5.0,7.0,83,0.00,,,0.00,Wunderground v.1.15,2013-03-02 18:53:00,
2013-03-02 13:56:00,23.8,19.4,30.13,NW,307,1.0,7.0,83,0.00,,,0.00,Wunderground v.1.15,2013-03-02 18:56:00,
2013-03-02 13:57:00,23.8,19.4,30.13,NW,323,1.0,7.0,83,0.00,,,0.00,Wunderground v.1.15,2013-03-02 18:57:00,
2013-03-02 13:58:00,23.8,19.4,30.13,NNW,342,3.0,7.0,83,0.00,,,0.00,Wunderground v.1.15,2013-03-02 18:58:00,
2013-03-02 14:01:00,23.8,19.4,30.13,NW,313,3.0,5.0,83,0.00,,,0.00,Wunderground v.1.15,2013-03-02 19:01:00,
2013-03-02 14:02:00,23.8,19.4,30.13,NNW,336,2.0,5.0,83,0.00,,,0.00,Wunderground v.1.15,2013-03-02 19:02:00,
2013-03-02 14:03:00,23.8,19.4,30.13,North,354,3.0,5.0,83,0.00,,,0.00,Wunderground v.1.15,2013-03-02 19:03:00,
2013-03-02 14:07:00,23.8,19.7,30.13,WNW,287,1.0,7.0,84,0.00,,,0.00,Wunderground v.1.15,2013-03-02 19:07:00,
2013-03-02 14:08:00,23.8,19.7,30.13,NW,326,2.0,9.0,84,0.00,,,0.00,Wunderground v.1.15,2013-03-02 19:08:00,
2013-03-02 14:12:00,23.7,19.3,30.13,NW,312,4.0,4.0,83,0.00,,,0.00,Wunderground v.1.15,2013-03-02 19:12:00,
2013-03-02 14:13:00,23.7,19.6,30.13,NW,315,0.0,4.0,84,0.00,,,0.00,Wunderground v.1.15,2013-03-02 19:13:00,
2013-03-02 14:17:00,23.7,19.6,30.13,NNW,347,1.0,6.0,84,0.00,,,0.00,Wunderground v.1.15,2013-03-02 19:17:00,
2013-03-02 14:18:00,23.8,19.7,30.13,NW,320,1.0,7.0,84,0.00,,,0.00,Wunderground v.1.15,2013-03-02 19:18:00,
2013-03-02 14:22:00,23.7,19.3,30.13,NW,319,3.0,8.0,83,0.00,,,0.00,Wunderground v.1.15,2013-03-02 19:22:00,
2013-03-02 14:24:00,23.7,19.3,30.13,SW,232,4.0,8.0,83,0.00,,,0.00,Wunderground v.1.15,2013-03-02 19:24:00,
2013-03-02 14:27:00,23.7,19.3,30.13,North,360,5.0,8.0,83,0.00,,,0.00,Wunderground v.1.15,2013-03-02 19:27:00,
2013-03-02 14:29:00,23.7,19.3,30.13,North,356,6.0,9.0,83,0.00,,,0.00,Wunderground v.1.15,2013-03-02 19:29:00,
2013-03-02 14:32:00,23.7,19.3,30.13,East,91,0.0,3.0,83,0.00,,,0.00,Wunderground v.1.15,2013-03-02 19:32:00,
2013-03-02 14:34:00,23.7,19.3,30.13,NNE,18,2.0,5.0,83,0.00,,,0.00,Wunderground v.1.15,2013-03-02 19:34:00,
2013-03-02 14:37:00,23.7,19.3,30.13,NNE,22,3.0,8.0,83,0.00,,,0.00,Wunderground v.1.15,2013-03-02 19:37:00,
2013-03-02 14:38:00,23.7,19.3,30.13,NW,314,4.0,8.0,83,0.00,,,0.00,Wunderground v.1.15,2013-03-02 19:38:00,
2013-03-02 14:39:00,23.7,19.3,30.13,NW,305,4.0,8.0,83,0.00,,,0.00,Wunderground v.1.15,2013-03-02 19:39:00,
2013-03-02 14:42:00,23.6,19.2,30.13,WNW,291,1.0,4.0,83,0.00,,,0.00,Wunderground v.1.15,2013-03-02 19:42:00,
2013-03-02 14:43:00,23.6,19.2,30.13,WNW,288,1.0,4.0,83,0.00,,,0.00,Wunderground v.1.15,2013-03-02 19:43:00,
2013-03-02 14:44:00,23.6,19.2,30.13,NW,305,5.0,6.0,83,0.00,,,0.00,Wunderground v.1.15,2013-03-02 19:44:00,
2013-03-02 14:47:00,23.6,19.2,30.13,NW,323,1.0,6.0,83,0.00,,,0.00,Wunderground v.1.15,2013-03-02 19:47:00,
2013-03-02 14:48:00,23.6,19.2,30.13,West,281,2.0,6.0,83,0.00,,,0.00,Wunderground v.1.15,2013-03-02 19:48:00,
2013-03-02 14:49:00,23.6,19.2,30.13,NW,308,3.0,6.0,83,0.00,,,0.00,Wunderground v.1.15,2013-03-02 19:49:00,
2013-03-02 14:52:00,23.6,19.2,30.13,NE,44,2.0,10.0,83,0.00,,,0.00,Wunderground v.1.15,2013-03-02 19:52:00,
2013-03-02 14:53:00,23.7,19.0,30.13,WNW,296,2.0,10.0,82,0.00,,,0.00,Wunderground v.1.15,2013-03-02 19:53:00,
2013-03-02 14:54:00,23.6,18.9,30.13,West,277,2.0,10.0,82,0.00,,,0.00,Wunderground v.1.15,2013-03-02 19:54:00,
2013-03-02 14:57:00,23.6,18.9,30.13,NW,311,4.0,10.0,82,0.00,,,0.00,Wunderground v.1.15,2013-03-02 19:57:00,
2013-03-02 14:58:00,23.6,18.9,30.13,NE,39,2.0,10.0,82,0.00,,,0.00,Wunderground v.1.15,2013-03-02 19:58:00,
2013-03-02 14:59:00,23.6,18.9,30.13,WNW,302,3.0,10.0,82,0.00,,,0.00,Wunderground v.1.15,2013-03-02 19:59:00,
2013-03-02 15:00:00,23.6,18.9,30.13,NW,318,4.0,4.0,82,0.00,,,0.00,Wunderground v.1.15,2013-03-02 20:00:00,
2013-03-02 15:02:00,23.6,18.9,30.13,NNW,332,2.0,6.0,82,0.00,,,0.00,Wunderground v.1.15,2013-03-02 20:02:00,
2013-03-02 15:03:00,23.6,18.9,30.13,NNW,328,2.0,6.0,82,0.00,,,0.00,Wunderground v.1.15,2013-03-02 20:03:00,
2013-03-02 15:04:00,23.6,18.9,30.13,NW,314,2.0,6.0,82,0.00,,,0.00,Wunderground v.1.15,2013-03-02 20:04:00,
2013-03-02 15:05:00,23.6,18.9,30.13,NNE,31,4.0,6.0,82,0.00,,,0.00,Wunderground v.1.15,2013-03-02 20:05:00,
2013-03-02 15:07:00,23.6,18.9,30.13,ENE,58,2.0,6.0,82,0.00,,,0.00,Wunderground v.1.15,2013-03-02 20:07:00,
2013-03-02 15:08:00,23.6,18.9,30.13,NW,316,3.0,6.0,82,0.00,,,0.00,Wunderground v.1.15,2013-03-02 20:08:00,
2013-03-02 15:09:00,23.6,18.9,30.13,West,277,1.0,6.0,82,0.00,,,0.00,Wunderground v.1.15,2013-03-02 20:09:00,
2013-03-02 15:10:00,23.6,18.9,30.13,NW,313,2.0,3.0,82,0.00,,,0.00,Wunderground v.1.15,2013-03-02 20:10:00,
2013-03-02 15:12:00,23.6,18.9,30.13,NW,318,4.0,6.0,82,0.00,,,0.00,Wunderground v.1.15,2013-03-02 20:12:00,
2013-03-02 15:14:00,23.7,19.0,30.13,NNE,26,3.0,6.0,82,0.00,,,0.00,Wunderground v.1.15,2013-03-02 20:14:00,
2013-03-02 15:15:00,23.6,18.9,30.13,North,350,3.0,6.0,82,0.00,,,0.00,Wunderground v.1.15,2013-03-02 20:15:00,
2013-03-02 15:17:00,23.6,18.9,30.13,NW,323,2.0,7.0,82,0.00,,,0.00,Wunderground v.1.15,2013-03-02 20:17:00,
2013-03-02 15:19:00,23.6,18.9,30.13,WNW,283,2.0,7.0,82,0.00,,,0.00,Wunderground v.1.15,2013-03-02 20:19:00,
2013-03-02 15:20:00,23.6,18.9,30.13,WNW,287,3.0,4.0,82,0.00,,,0.00,Wunderground v.1.15,2013-03-02 20:20:00,
2013-03-02 15:22:00,23.5,18.8,30.13,NW,310,3.0,7.0,82,0.00,,,0.00,Wunderground v.1.15,2013-03-02 20:22:00,
2013-03-02 15:24:00,23.4,18.7,30.13,WNW,284,8.0,8.0,82,0.00,,,0.00,Wunderground v.1.15,2013-03-02 20:24:00,
2013-03-02 15:25:00,23.4,18.7,30.13,NNE,26,2.0,8.0,82,0.00,,,0.00,Wunderground v.1.15,2013-03-02 20:25:00,
2013-03-02 15:27:00,23.4,18.7,30.13,WNW,282,4.0,8.0,82,0.00,,,0.00,Wunderground v.1.15,2013-03-02 20:27:00,
2013-03-02 15:29:00,23.4,18.7,30.13,WNW,287,3.0,8.0,82,0.00,,,0.00,Wunderground v.1.15,2013-03-02 20:29:00,
2013-03-02 15:30:00,23.4,18.7,30.13,West,264,2.0,4.0,82,0.00,,,0.00,Wunderground v.1.15,2013-03-02 20:30:00,
2013-03-02 15:32:00,23.5,18.8,30.13,WNW,284,2.0,4.0,82,0.00,,,0.00,Wunderground v.1.15,2013-03-02 20:32:00,
2013-03-02 15:34:00,23.5,18.8,30.13,NNW,332,1.0,5.0,82,0.00,,,0.00,Wunderground v.1.15,2013-03-02 20:34:00,
2013-03-02 15:35:00,23.6,18.9,30.13,NW,310,5.0,7.0,82,0.00,,,0.00,Wunderground v.1.15,2013-03-02 20:35:00,
2013-03-02 15:37:00,23.6,18.9,30.13,NW,315,1.0,7.0,82,0.00,,,0.00,Wunderground v.1.15,2013-03-02 20:37:00,
2013-03-02 15:39:00,23.6,18.9,30.13,NNW,335,1.0,7.0,82,0.00,,,0.00,Wunderground v.1.15,2013-03-02 20:39:00,
2013-03-02 15:41:00,23.7,19.0,30.13,NW,314,3.0,5.0,82,0.00,,,0.00,Wunderground v.1.15,2013-03-02 20:41:00,
2013-03-02 15:43:00,23.7,18.7,30.13,NNW,347,2.0,6.0,81,0.00,,,0.00,Wunderground v.1.15,2013-03-02 20:43:00,
2013-03-02 15:44:00,23.6,18.6,30.13,NNW,336,0.0,6.0,81,0.00,,,0.00,Wunderground v.1.15,2013-03-02 20:44:00,
2013-03-02 15:46:00,23.7,19.0,30.13,NW,321,4.0,7.0,82,0.00,,,0.00,Wunderground v.1.15,2013-03-02 20:46:00,
2013-03-02 15:48:00,23.7,18.7,30.13,NNE,15,0.0,7.0,81,0.00,,,0.00,Wunderground v.1.15,2013-03-02 20:48:00,
2013-03-02 15:50:00,23.7,19.0,30.13,NW,316,4.0,4.0,82,0.00,,,0.00,Wunderground v.1.15,2013-03-02 20:50:00,
2013-03-02 15:51:00,23.7,18.7,30.13,NW,323,2.0,6.0,81,0.00,,,0.00,Wunderground v.1.15,2013-03-02 20:51:00,
2013-03-02 15:53:00,23.7,18.7,30.13,West,278,1.0,6.0,81,0.00,,,0.00,Wunderground v.1.15,2013-03-02 20:53:00,
2013-03-02 15:55:00,23.6,18.6,30.13,West,272,3.0,6.0,81,0.00,,,0.00,Wunderground v.1.15,2013-03-02 20:55:00,
2013-03-02 15:56:00,23.6,18.6,30.13,WNW,300,3.0,8.0,81,0.00,,,0.00,Wunderground v.1.15,2013-03-02 20:56:00,
2013-03-02 15:58:00,23.6,18.9,30.13,NNW,343,5.0,8.0,82,0.00,,,0.00,Wunderground v.1.15,2013-03-02 20:58:00,
2013-03-02 16:00:00,23.6,18.9,30.13,WNW,291,4.0,4.0,82,0.00,,,0.00,Wunderground v.1.15,2013-03-02 21:00:00,
2013-03-02 16:01:00,23.6,18.9,30.13,WNW,303,1.0,5.0,82,0.00,,,0.00,Wunderground v.1.15,2013-03-02 21:01:00,
2013-03-02 16:03:00,23.5,18.8,30.13,West,278,1.0,9.0,82,0.00,,,0.00,Wunderground v.1.15,2013-03-02 21:03:00,
2013-03-02 16:05:00,23.6,18.9,30.13,NNE,15,2.0,9.0,82,0.00,,,0.00,Wunderground v.1.15,2013-03-02 21:05:00,
2013-03-02 16:06:00,23.5,18.8,30.13,NW,312,4.0,9.0,82,0.00,,,0.00,Wunderground v.1.15,2013-03-02 21:06:00,
2013-03-02 16:08:00,23.5,18.8,30.13,NNE,31,1.0,9.0,82,0.00,,,0.00,Wunderground v.1.15,2013-03-02 21:08:00,
2013-03-02 16:10:00,23.5,18.8,30.13,NNE,24,2.0,4.0,82,0.00,,,0.00,Wunderground v.1.15,2013-03-02 21:10:00,
2013-03-02 16:11:00,23.5,18.8,30.13,North,3,1.0,4.0,82,0.00,,,0.00,Wunderground v.1.15,2013-03-02 21:11:00,
2013-03-02 16:13:00,23.5,18.8,30.13,NNW,340,3.0,4.0,82,0.00,,,0.00,Wunderground v.1.15,2013-03-02 21:13:00,
2013-03-02 16:15:00,23.5,19.1,30.13,ENE,73,1.0,4.0,83,0.00,,,0.00,Wunderground v.1.15,2013-03-02 21:15:00,
2013-03-02 16:16:00,23.6,19.2,30.13,ENE,76,2.0,4.0,83,0.00,,,0.00,Wunderground v.1.15,2013-03-02 21:16:00,
2013-03-02 16:18:00,23.6,19.2,30.13,NNW,333,0.0,4.0,83,0.00,,,0.00,Wunderground v.1.15,2013-03-02 21:18:00,
2013-03-02 16:20:00,23.6,19.2,30.13,NNW,333,4.0,5.0,83,0.00,,,0.00,Wunderground v.1.15,2013-03-02 21:20:00,
2013-03-02 16:21:00,23.6,19.2,30.13,NW,314,4.0,6.0,83,0.00,,,0.00,Wunderground v.1.15,2013-03-02 21:21:00,
2013-03-02 16:23:00,23.6,18.9,30.13,West,277,3.0,6.0,82,0.00,,,0.00,Wunderground v.1.15,2013-03-02 21:23:00,
2013-03-02 16:25:00,23.5,18.8,30.13,NW,326,0.0,6.0,82,0.00,,,0.00,Wunderground v.1.15,2013-03-02 21:25:00,
2013-03-02 16:26:00,23.5,18.8,30.14,NNW,329,2.0,6.0,82,0.00,,,0.00,Wunderground v.1.15,2013-03-02 21:26:00,
2013-03-02 16:28:00,23.4,18.7,30.14,NNE,29,3.0,6.0,82,0.00,,,0.00,Wunderground v.1.15,2013-03-02 21:28:00,
2013-03-02 16:31:00,23.4,18.7,30.14,WNW,300,2.0,9.0,82,0.00,,,0.00,Wunderground v.1.15,2013-03-02 21:31:00,
2013-03-02 16:32:00,23.3,18.6,30.14,WNW,294,1.0,9.0,82,0.00,,,0.00,Wunderground v.1.15,2013-03-02 21:32:00,
2013-03-02 16:33:00,23.3,18.6,30.13,NNW,329,2.0,9.0,82,0.00,,,0.00,Wunderground v.1.15,2013-03-02 21:33:00,
2013-03-02 16:36:00,23.2,18.5,30.13,NNW,329,1.0,9.0,82,0.00,,,0.00,Wunderground v.1.15,2013-03-02 21:36:00,
2013-03-02 16:37:00,23.2,18.8,30.14,NNE,15,4.0,9.0,83,0.00,,,0.00,Wunderground v.1.15,2013-03-02 21:37:00,
2013-03-02 16:39:00,23.2,18.8,30.14,WNW,298,1.0,9.0,83,0.00,,,0.00,Wunderground v.1.15,2013-03-02 21:39:00,
2013-03-02 16:41:00,23.2,18.8,30.14,WNW,303,0.0,3.0,83,0.00,,,0.00,Wunderground v.1.15,2013-03-02 21:41:00,
2013-03-02 16:42:00,23.2,18.8,30.13,NNW,336,2.0,3.0,83,0.00,,,0.00,Wunderground v.1.15,2013-03-02 21:42:00,
2013-03-02 16:44:00,23.2,18.8,30.13,NW,311,4.0,7.0,83,0.00,,,0.00,Wunderground v.1.15,2013-03-02 21:44:00,
2013-03-02 16:46:00,23.1,18.7,30.13,NW,326,4.0,7.0,83,0.00,,,0.00,Wunderground v.1.15,2013-03-02 21:46:00,
2013-03-02 16:47:00,23.1,18.7,30.14,NW,318,3.0,7.0,83,0.00,,,0.00,Wunderground v.1.15,2013-03-02 21:47:00,
2013-03-02 16:49:00,23.1,18.4,30.13,NW,311,1.0,7.0,82,0.00,,,0.00,Wunderground v.1.15,2013-03-02 21:49:00,
2013-03-02 16:51:00,23.1,18.4,30.14,NW,321,3.0,5.0,82,0.00,,,0.00,Wunderground v.1.15,2013-03-02 21:51:00,
2013-03-02 16:52:00,23.1,18.4,30.13,NNW,338,1.0,5.0,82,0.00,,,0.00,Wunderground v.1.15,2013-03-02 21:52:00,
2013-03-02 16:53:00,23.1,18.4,30.13,NNW,338,0.0,5.0,82,0.00,,,0.00,Wunderground v.1.15,2013-03-02 21:53:00,
2013-03-02 16:54:00,23.1,18.7,30.13,NNE,32,1.0,5.0,83,0.00,,,0.00,Wunderground v.1.15,2013-03-02 21:54:00,
2013-03-02 16:56:00,23.2,18.8,30.14,NNW,330,2.0,5.0,83,0.00,,,0.00,Wunderground v.1.15,2013-03-02 21:56:00,
2013-03-02 16:57:00,23.2,18.8,30.14,NNE,25,0.0,5.0,83,0.00,,,0.00,Wunderground v.1.15,2013-03-02 21:57:00,
2013-03-02 16:58:00,23.2,18.8,30.14,West,271,1.0,5.0,83,0.00,,,0.00,Wunderground v.1.15,2013-03-02 21:58:00,
2013-03-02 16:59:00,23.2,18.5,30.14,West,271,1.0,5.0,82,0.00,,,0.00,Wunderground v.1.15,2013-03-02 21:59:00,
2013-03-02 17:01:00,23.2,18.8,30.14,WNW,296,6.0,6.0,83,0.00,,,0.00,Wunderground v.1.15,2013-03-02 22:01:00,
2013-03-02 17:03:00,23.2,18.5,30.14,NW,307,2.0,6.0,82,0.00,,,0.00,Wunderground v.1.15,2013-03-02 22:03:00,
2013-03-02 17:04:00,23.2,18.5,30.14,NW,308,6.0,6.0,82,0.00,,,0.00,Wunderground v.1.15,2013-03-02 22:04:00,
2013-03-02 17:06:00,23.1,18.4,30.14,NE,39,2.0,6.0,82,0.00,,,0.00,Wunderground v.1.15,2013-03-02 22:06:00,
2013-03-02 17:08:00,23.1,18.1,30.14,WNW,297,1.0,7.0,81,0.00,,,0.00,Wunderground v.1.15,2013-03-02 22:08:00,
2013-03-02 17:10:00,23.1,18.1,30.14,NW,309,1.0,3.0,81,0.00,,,0.00,Wunderground v.1.15,2013-03-02 22:10:00,
2013-03-02 17:11:00,23.1,18.1,30.14,NNE,22,3.0,3.0,81,0.00,,,0.00,Wunderground v.1.15,2013-03-02 22:11:00,
2013-03-02 17:13:00,23.1,18.1,30.14,WNW,298,2.0,7.0,81,0.00,,,0.00,Wunderground v.1.15,2013-03-02 22:13:00,
2013-03-02 17:15:00,23.0,17.7,30.14,WNW,303,3.0,7.0,80,0.00,,,0.00,Wunderground v.1.15,2013-03-02 22:15:00,
2013-03-02 17:16:00,23.0,17.7,30.14,NW,308,2.0,7.0,80,0.00,,,0.00,Wunderground v.1.15,2013-03-02 22:16:00,
2013-03-02 17:18:00,23.0,17.7,30.14,West,273,2.0,7.0,80,0.00,,,0.00,Wunderground v.1.15,2013-03-02 22:18:00,
2013-03-02 17:19:00,22.9,17.7,30.14,NNW,346,1.0,7.0,80,0.00,,,0.00,Wunderground v.1.15,2013-03-02 22:19:00,
2013-03-02 17:20:00,23.0,17.7,30.14,ENE,73,1.0,2.0,80,0.00,,,0.00,Wunderground v.1.15,2013-03-02 22:20:00,
2013-03-02 17:21:00,22.9,17.7,30.14,NNE,26,3.0,4.0,80,0.00,,,0.00,Wunderground v.1.15,2013-03-02 22:21:00,
2013-03-02 17:23:00,22.9,17.7,30.14,NNW,329,0.0,4.0,80,0.00,,,0.00,Wunderground v.1.15,2013-03-02 22:23:00,
2013-03-02 17:24:00,22.9,17.7,30.14,WNW,293,2.0,4.0,80,0.00,,,0.00,Wunderground v.1.15,2013-03-02 22:24:00,
2013-03-02 17:25:00,22.9,17.7,30.14,NW,318,2.0,4.0,80,0.00,,,0.00,Wunderground v.1.15,2013-03-02 22:25:00,
2013-03-02 17:26:00,22.9,17.7,30.14,NW,322,2.0,5.0,80,0.00,,,0.00,Wunderground v.1.15,2013-03-02 22:26:00,
2013-03-02 17:28:00,22.9,17.7,30.14,NNE,32,1.0,5.0,80,0.00,,,0.00,Wunderground v.1.15,2013-03-02 22:28:00,
2013-03-02 17:29:00,22.9,17.7,30.14,WNW,289,1.0,5.0,80,0.00,,,0.00,Wunderground v.1.15,2013-03-02 22:29:00,
2013-03-02 17:30:00,22.9,17.7,30.14,WSW,257,2.0,3.0,80,0.00,,,0.00,Wunderground v.1.15,2013-03-02 22:30:00,
2013-03-02 17:32:00,22.9,17.7,30.14,NNE,19,2.0,3.0,80,0.00,,,0.00,Wunderground v.1.15,2013-03-02 22:32:00,
2013-03-02 17:33:00,22.9,17.9,30.15,WNW,300,1.0,4.0,81,0.00,,,0.00,Wunderground v.1.15,2013-03-02 22:33:00,
2013-03-02 17:34:00,22.9,17.9,30.15,NNW,333,1.0,4.0,81,0.00,,,0.00,Wunderground v.1.15,2013-03-02 22:34:00,
2013-03-02 17:35:00,22.9,17.9,30.15,NE,48,1.0,4.0,81,0.00,,,0.00,Wunderground v.1.15,2013-03-02 22:35:00,
2013-03-02 17:37:00,22.9,17.9,30.14,East,91,1.0,4.0,81,0.00,,,0.00,Wunderground v.1.15,2013-03-02 22:37:00,
2013-03-02 17:38:00,22.9,17.9,30.15,NNE,25,2.0,6.0,81,0.00,,,0.00,Wunderground v.1.15,2013-03-02 22:38:00,
2013-03-02 17:39:00,22.9,17.9,30.15,NNE,26,3.0,6.0,81,0.00,,,0.00,Wunderground v.1.15,2013-03-02 22:39:00,
2013-03-02 17:40:00,22.9,17.9,30.15,East,99,0.0,1.0,81,0.00,,,0.00,Wunderground v.1.15,2013-03-02 22:40:00,
2013-03-02 17:42:00,23.0,18.0,30.14,NW,316,0.0,3.0,81,0.00,,,0.00,Wunderground v.1.15,2013-03-02 22:42:00,
2013-03-02 17:44:00,22.9,17.9,30.15,North,11,3.0,3.0,81,0.00,,,0.00,Wunderground v.1.15,2013-03-02 22:44:00,
2013-03-02 17:45:00,22.9,17.9,30.15,NNW,346,2.0,3.0,81,0.00,,,0.00,Wunderground v.1.15,2013-03-02 22:45:00,
2013-03-02 17:47:00,22.9,17.9,30.15,NNE,23,2.0,4.0,81,0.00,,,0.00,Wunderground v.1.15,2013-03-02 22:47:00,
2013-03-02 17:49:00,22.9,17.9,30.15,ENE,60,3.0,4.0,81,0.00,,,0.00,Wunderground v.1.15,2013-03-02 22:49:00,
2013-03-02 17:51:00,22.9,17.9,30.15,NNW,333,3.0,3.0,81,0.00,,,0.00,Wunderground v.1.15,2013-03-02 22:51:00,
2013-03-02 17:52:00,22.8,17.8,30.15,NW,308,0.0,3.0,81,0.00,,,0.00,Wunderground v.1.15,2013-03-02 22:52:00,
2013-03-02 17:54:00,22.9,18.2,30.15,North,5,1.0,4.0,82,0.00,,,0.00,Wunderground v.1.15,2013-03-02 22:54:00,
2013-03-02 17:55:00,22.8,18.1,30.15,East,86,1.0,4.0,82,0.00,,,0.00,Wunderground v.1.15,2013-03-02 22:55:00,
2013-03-02 17:56:00,22.9,18.2,30.15,East,98,2.0,4.0,82,0.00,,,0.00,Wunderground v.1.15,2013-03-02 22:56:00,
2013-03-02 17:57:00,22.8,18.1,30.15,ENE,76,0.0,4.0,82,0.00,,,0.00,Wunderground v.1.15,2013-03-02 22:57:00,
2013-03-02 17:59:00,22.8,18.1,30.15,East,90,1.0,4.0,82,0.00,,,0.00,Wunderground v.1.15,2013-03-02 22:59:00,
2013-03-02 18:00:00,22.8,18.1,30.15,ENE,62,3.0,6.0,82,0.00,,,0.00,Wunderground v.1.15,2013-03-02 23:00:00,
2013-03-02 18:01:00,22.8,18.1,30.15,North,1,0.0,6.0,82,0.00,,,0.00,Wunderground v.1.15,2013-03-02 23:01:00,
2013-03-02 18:02:00,22.8,18.1,30.15,NE,35,4.0,6.0,82,0.00,,,0.00,Wunderground v.1.15,2013-03-02 23:02:00,
2013-03-02 18:04:00,22.7,18.0,30.15,ENE,74,2.0,6.0,82,0.00,,,0.00,Wunderground v.1.15,2013-03-02 23:04:00,
2013-03-02 18:06:00,22.7,18.0,30.15,NE,53,0.0,6.0,82,0.00,,,0.00,Wunderground v.1.15,2013-03-02 23:06:00,
2013-03-02 18:07:00,22.7,18.0,30.15,North,349,2.0,6.0,82,0.00,,,0.00,Wunderground v.1.15,2013-03-02 23:07:00,
2013-03-02 18:09:00,22.7,18.0,30.15,NNW,341,0.0,6.0,82,0.00,,,0.00,Wunderground v.1.15,2013-03-02 23:09:00,
2013-03-02 18:11:00,22.7,18.0,30.15,NNW,333,3.0,3.0,82,0.00,,,0.00,Wunderground v.1.15,2013-03-02 23:11:00,
2013-03-02 18:12:00,22.7,18.0,30.15,NNE,26,2.0,6.0,82,0.00,,,0.00,Wunderground v.1.15,2013-03-02 23:12:00,
2013-03-02 18:14:00,22.7,18.0,30.15,ENE,68,0.0,6.0,82,0.00,,,0.00,Wunderground v.1.15,2013-03-02 23:14:00,
2013-03-02 18:16:00,22.7,18.0,30.15,East,82,1.0,6.0,82,0.00,,,0.00,Wunderground v.1.15,2013-03-02 23:16:00,
2013-03-02 18:17:00,22.7,18.0,30.15,WNW,298,2.0,6.0,82,0.00,,,0.00,Wunderground v.1.15,2013-03-02 23:17:00,
2013-03-02 18:19:00,22.6,17.6,30.15,NE,47,0.0,2.0,81,0.00,,,0.00,Wunderground v.1.15,2013-03-02 23:19:00,
2013-03-02 18:21:00,22.6,17.6,30.15,NW,307,0.0,3.0,81,0.00,,,0.00,Wunderground v.1.15,2013-03-02 23:21:00,
2013-03-02 18:22:00,22.6,17.6,30.15,NW,318,3.0,3.0,81,0.00,,,0.00,Wunderground v.1.15,2013-03-02 23:22:00,
2013-03-02 18:24:00,22.5,17.5,30.15,West,274,2.0,6.0,81,0.00,,,0.00,Wunderground v.1.15,2013-03-02 23:24:00,
2013-03-02 18:27:00,22.5,17.5,30.15,NW,306,0.0,6.0,81,0.00,,,0.00,Wunderground v.1.15,2013-03-02 23:27:00,
2013-03-02 18:30:00,22.5,17.8,30.16,NW,320,1.0,2.0,82,0.00,,,0.00,Wunderground v.1.15,2013-03-02 23:30:00,
2013-03-02 18:32:00,22.5,17.8,30.15,NNW,331,3.0,3.0,82,0.00,,,0.00,Wunderground v.1.15,2013-03-02 23:32:00,
2013-03-02 18:35:00,22.5,17.8,30.15,NNW,328,0.0,3.0,82,0.00,,,0.00,Wunderground v.1.15,2013-03-02 23:35:00,
2013-03-02 18:37:00,22.5,17.8,30.15,West,277,0.0,3.0,82,0.00,,,0.00,Wunderground v.1.15,2013-03-02 23:37:00,
2013-03-02 18:38:00,22.5,17.8,30.15,West,276,1.0,3.0,82,0.00,,,0.00,Wunderground v.1.15,2013-03-02 23:38:00,
2013-03-02 18:40:00,22.4,17.5,30.15,NW,323,0.0,2.0,81,0.00,,,0.00,Wunderground v.1.15,2013-03-02 23:40:00,
2013-03-02 18:42:00,22.4,17.5,30.15,NW,323,0.0,2.0,81,0.00,,,0.00,Wunderground v.1.15,2013-03-02 23:42:00,
2013-03-02 18:43:00,22.4,17.5,30.15,NNW,338,1.0,2.0,81,0.00,,,0.00,Wunderground v.1.15,2013-03-02 23:43:00,
2013-03-02 18:45:00,22.4,17.5,30.15,West,277,1.0,2.0,81,0.00,,,0.00,Wunderground v.1.15,2013-03-02 23:45:00,
2013-03-02 18:47:00,22.4,17.5,30.15,NNE,15,0.0,3.0,81,0.00,,,0.00,Wunderground v.1.15,2013-03-02 23:47:00,
2013-03-02 18:48:00,22.4,17.5,30.15,NW,314,4.0,4.0,81,0.00,,,0.00,Wunderground v.1.15,2013-03-02 23:48:00,
2013-03-02 18:50:00,22.4,17.5,30.15,NW,316,0.0,1.0,81,0.00,,,0.00,Wunderground v.1.15,2013-03-02 23:50:00,
2013-03-02 18:52:00,22.4,17.5,30.15,NE,38,1.0,2.0,81,0.00,,,0.00,Wunderground v.1.15,2013-03-02 23:52:00,
2013-03-02 18:53:00,22.4,17.5,30.15,NE,37,2.0,4.0,81,0.00,,,0.00,Wunderground v.1.15,2013-03-02 23:53:00,
2013-03-02 18:55:00,22.4,17.5,30.15,North,8,1.0,4.0,81,0.00,,,0.00,Wunderground v.1.15,2013-03-02 23:55:00,
2013-03-02 18:57:00,22.4,17.5,30.15,NW,322,1.0,4.0,81,0.00,,,0.00,Wunderground v.1.15,2013-03-02 23:57:00,
2013-03-02 18:58:00,22.4,17.5,30.15,NW,322,0.0,4.0,81,0.00,,,0.00,Wunderground v.1.15,2013-03-02 23:58:00,
2013-03-02 19:01:00,22.4,17.5,30.15,NNW,340,0.0,1.0,81,0.00,,,0.00,Wunderground v.1.15,2013-03-03 00:01:00,
2013-03-02 19:02:00,22.3,17.4,30.16,WNW,295,4.0,4.0,81,0.00,,,0.00,Wunderground v.1.15,2013-03-03 00:02:00,
2013-03-02 19:03:00,22.3,17.4,30.16,NNW,331,3.0,4.0,81,0.00,,,0.00,Wunderground v.1.15,2013-03-03 00:03:00,
2013-03-02 19:04:00,22.3,17.4,30.16,NW,321,1.0,4.0,81,0.00,,,0.00,Wunderground v.1.15,2013-03-03 00:04:00,
2013-03-02 19:06:00,22.3,17.4,30.16,NE,46,3.0,4.0,81,0.00,,,0.00,Wunderground v.1.15,2013-03-03 00:06:00,
2013-03-02 19:07:00,22.3,17.4,30.16,WNW,294,4.0,8.0,81,0.00,,,0.00,Wunderground v.1.15,2013-03-03 00:07:00,
2013-03-02 19:08:00,22.3,17.4,30.16,NW,314,4.0,8.0,81,0.00,,,0.00,Wunderground v.1.15,2013-03-03 00:08:00,
2013-03-02 19:09:00,22.3,17.4,30.16,West,269,1.0,8.0,81,0.00,,,0.00,Wunderground v.1.15,2013-03-03 00:09:00,
2013-03-02 19:11:00,22.3,17.4,30.16,NNW,343,2.0,4.0,81,0.00,,,0.00,Wunderground v.1.15,2013-03-03 00:11:00,
2013-03-02 19:12:00,22.3,17.4,30.16,North,11,3.0,4.0,81,0.00,,,0.00,Wunderground v.1.15,2013-03-03 00:12:00,
2013-03-02 19:13:00,22.3,17.4,30.16,NW,319,1.0,4.0,81,0.00,,,0.00,Wunderground v.1.15,2013-03-03 00:13:00,
2013-03-02 19:14:00,22.3,17.4,30.16,WNW,294,2.0,4.0,81,0.00,,,0.00,Wunderground v.1.15,2013-03-03 00:14:00,
2013-03-02 19:16:00,22.3,17.4,30.16,NW,326,3.0,5.0,81,0.00,,,0.00,Wunderground v.1.15,2013-03-03 00:16:00,
2013-03-02 19:18:00,22.3,17.4,30.16,NW,314,4.0,5.0,81,0.00,,,0.00,Wunderground v.1.15,2013-03-03 00:18:00,
2013-03-02 19:19:00,22.3,17.4,30.16,NNE,29,2.0,5.0,81,0.00,,,0.00,Wunderground v.1.15,2013-03-03 00:19:00,
2013-03-02 19:21:00,22.3,17.4,30.16,West,273,1.0,6.0,81,0.00,,,0.00,Wunderground v.1.15,2013-03-03 00:21:00,
2013-03-02 19:23:00,22.2,17.3,30.16,NNW,329,2.0,6.0,81,0.00,,,0.00,Wunderground v.1.15,2013-03-03 00:23:00,
2013-03-02 19:24:00,22.3,17.1,30.16,NNW,338,1.0,6.0,80,0.00,,,0.00,Wunderground v.1.15,2013-03-03 00:24:00,
2013-03-02 19:26:00,22.2,17.0,30.16,NNW,336,1.0,6.0,80,0.00,,,0.00,Wunderground v.1.15,2013-03-03 00:26:00,
2013-03-02 19:28:00,22.2,17.0,30.16,NW,309,1.0,6.0,80,0.00,,,0.00,Wunderground v.1.15,2013-03-03 00:28:00,
2013-03-02 19:29:00,22.2,17.0,30.16,NW,322,1.0,6.0,80,0.00,,,0.00,Wunderground v.1.15,2013-03-03 00:29:00,
2013-03-02 19:31:00,22.2,17.0,30.16,WNW,288,2.0,4.0,80,0.00,,,0.00,Wunderground v.1.15,2013-03-03 00:31:00,
2013-03-02 19:33:00,22.1,16.6,30.15,NW,326,2.0,6.0,79,0.00,,,0.00,Wunderground v.1.15,2013-03-03 00:33:00,
2013-03-02 19:34:00,22.2,16.4,30.15,NNW,328,2.0,6.0,78,0.00,,,0.00,Wunderground v.1.15,2013-03-03 00:34:00,
2013-03-02 19:35:00,22.1,16.3,30.16,NNE,31,3.0,6.0,78,0.00,,,0.00,Wunderground v.1.15,2013-03-03 00:35:00,
2013-03-02 19:36:00,22.1,16.0,30.16,NNE,20,6.0,7.0,77,0.00,,,0.00,Wunderground v.1.15,2013-03-03 00:36:00,
2013-03-02 19:38:00,22.1,16.0,30.15,NW,312,2.0,7.0,77,0.00,,,0.00,Wunderground v.1.15,2013-03-03 00:38:00,
2013-03-02 19:39:00,22.1,15.7,30.15,NNE,13,2.0,7.0,76,0.00,,,0.00,Wunderground v.1.15,2013-03-03 00:39:00,
2013-03-02 19:40:00,22.1,15.7,30.15,North,8,1.0,3.0,76,0.00,,,0.00,Wunderground v.1.15,2013-03-03 00:40:00,
2013-03-02 19:42:00,22.1,15.7,30.15,NE,45,0.0,3.0,76,0.00,,,0.00,Wunderground v.1.15,2013-03-03 00:42:00,
2013-03-02 19:43:00,22.1,15.7,30.15,NNW,329,3.0,4.0,76,0.00,,,0.00,Wunderground v.1.15,2013-03-03 00:43:00,
2013-03-02 19:44:00,22.1,15.7,30.15,NW,318,0.0,4.0,76,0.00,,,0.00,Wunderground v.1.15,2013-03-03 00:44:00,
2013-03-02 19:45:00,22.1,15.7,30.15,NNW,332,3.0,4.0,76,0.00,,,0.00,Wunderground v.1.15,2013-03-03 00:45:00,
2013-03-02 19:47:00,22.1,15.7,30.15,NW,316,1.0,4.0,76,0.00,,,0.00,Wunderground v.1.15,2013-03-03 00:47:00,
2013-03-02 19:48:00,22.1,15.7,30.15,ENE,72,0.0,4.0,76,0.00,,,0.00,Wunderground v.1.15,2013-03-03 00:48:00,
2013-03-02 19:49:00,22.1,15.7,30.15,ENE,72,0.0,4.0,76,0.00,,,0.00,Wunderground v.1.15,2013-03-03 00:49:00,
2013-03-02 19:51:00,22.1,16.0,30.15,West,267,1.0,4.0,77,0.00,,,0.00,Wunderground v.1.15,2013-03-03 00:51:00,
2013-03-02 19:52:00,22.1,16.0,30.15,West,262,1.0,4.0,77,0.00,,,0.00,Wunderground v.1.15,2013-03-03 00:52:00,
2013-03-02 19:54:00,22.1,16.0,30.15,West,262,0.0,4.0,77,0.00,,,0.00,Wunderground v.1.15,2013-03-03 00:54:00,
2013-03-02 19:56:00,22.1,16.0,30.15,West,262,1.0,4.0,77,0.00,,,0.00,Wunderground v.1.15,2013-03-03 00:56:00,
2013-03-02 19:57:00,22.1,16.0,30.15,West,262,1.0,4.0,77,0.00,,,0.00,Wunderground v.1.15,2013-03-03 00:57:00,
2013-03-02 19:59:00,22.0,15.9,30.15,North,360,1.0,4.0,77,0.00,,,0.00,Wunderground v.1.15,2013-03-03 00:59:00,
2013-03-02 20:00:00,22.0,15.9,30.15,North,360,0.0,1.0,77,0.00,,,0.00,Wunderground v.1.15,2013-03-03 01:00:00,
2013-03-02 20:01:00,22.0,16.2,30.15,NW,313,1.0,1.0,78,0.00,,,0.00,Wunderground v.1.15,2013-03-03 01:01:00,
2013-03-02 20:02:00,22.0,16.2,30.15,NW,316,1.0,1.0,78,0.00,,,0.00,Wunderground v.1.15,2013-03-03 01:02:00,
2013-03-02 20:04:00,21.9,16.1,30.15,NE,45,0.0,1.0,78,0.00,,,0.00,Wunderground v.1.15,2013-03-03 01:04:00,
2013-03-02 20:05:00,21.9,16.1,30.15,NE,44,1.0,1.0,78,0.00,,,0.00,Wunderground v.1.15,2013-03-03 01:05:00,
2013-03-02 20:07:00,21.9,16.1,30.15,NE,39,0.0,2.0,78,0.00,,,0.00,Wunderground v.1.15,2013-03-03 01:07:00,
2013-03-02 20:09:00,21.9,16.1,30.15,NW,312,1.0,5.0,78,0.00,,,0.00,Wunderground v.1.15,2013-03-03 01:09:00,
2013-03-02 20:10:00,21.9,16.1,30.15,NW,326,2.0,2.0,78,0.00,,,0.00,Wunderground v.1.15,2013-03-03 01:10:00,
2013-03-02 20:12:00,21.9,16.1,30.15,North,10,2.0,4.0,78,0.00,,,0.00,Wunderground v.1.15,2013-03-03 01:12:00,
2013-03-02 20:14:00,21.9,16.4,30.15,North,11,2.0,4.0,79,0.00,,,0.00,Wunderground v.1.15,2013-03-03 01:14:00,
2013-03-02 20:15:00,21.9,16.4,30.15,NNE,12,1.0,4.0,79,0.00,,,0.00,Wunderground v.1.15,2013-03-03 01:15:00,
2013-03-02 20:17:00,21.9,16.4,30.15,NW,317,1.0,4.0,79,0.00,,,0.00,Wunderground v.1.15,2013-03-03 01:17:00,
2013-03-02 20:18:00,21.9,16.4,30.15,NW,308,1.0,4.0,79,0.00,,,0.00,Wunderground v.1.15,2013-03-03 01:18:00,
2013-03-02 20:19:00,21.9,16.4,30.15,NNW,336,1.0,4.0,79,0.00,,,0.00,Wunderground v.1.15,2013-03-03 01:19:00,
2013-03-02 20:20:00,21.9,16.4,30.15,NNW,335,0.0,1.0,79,0.00,,,0.00,Wunderground v.1.15,2013-03-03 01:20:00,
2013-03-02 20:22:00,21.9,16.4,30.15,North,354,0.0,1.0,79,0.00,,,0.00,Wunderground v.1.15,2013-03-03 01:22:00,
2013-03-02 20:23:00,21.9,16.4,30.15,North,354,0.0,1.0,79,0.00,,,0.00,Wunderground v.1.15,2013-03-03 01:23:00,
2013-03-02 20:24:00,21.8,16.3,30.15,North,354,0.0,1.0,79,0.00,,,0.00,Wunderground v.1.15,2013-03-03 01:24:00,
2013-03-02 20:25:00,21.8,16.3,30.15,West,273,2.0,2.0,79,0.00,,,0.00,Wunderground v.1.15,2013-03-03 01:25:00,
2013-03-02 20:27:00,21.8,16.3,30.15,North,8,1.0,3.0,79,0.00,,,0.00,Wunderground v.1.15,2013-03-03 01:27:00,
2013-03-02 20:28:00,21.8,16.3,30.15,North,11,0.0,3.0,79,0.00,,,0.00,Wunderground v.1.15,2013-03-03 01:28:00,
2013-03-02 20:30:00,21.8,16.3,30.15,NW,324,2.0,2.0,79,0.00,,,0.00,Wunderground v.1.15,2013-03-03 01:30:00,
2013-03-02 20:33:00,21.8,16.6,30.15,NW,307,0.0,4.0,80,0.00,,,0.00,Wunderground v.1.15,2013-03-03 01:33:00,
2013-03-02 20:35:00,21.8,16.6,30.15,North,6,1.0,4.0,80,0.00,,,0.00,Wunderground v.1.15,2013-03-03 01:35:00,
2013-03-02 20:38:00,21.8,16.6,30.15,NNW,335,1.0,6.0,80,0.00,,,0.00,Wunderground v.1.15,2013-03-03 01:38:00,
2013-03-02 20:40:00,21.8,16.6,30.15,North,359,1.0,2.0,80,0.00,,,0.00,Wunderground v.1.15,2013-03-03 01:40:00,
2013-03-02 20:41:00,21.8,16.6,30.15,North,11,2.0,2.0,80,0.00,,,0.00,Wunderground v.1.15,2013-03-03 01:41:00,
2013-03-02 20:43:00,21.8,16.9,30.15,WNW,298,3.0,3.0,81,0.00,,,0.00,Wunderground v.1.15,2013-03-03 01:43:00,
2013-03-02 20:45:00,21.8,16.9,30.15,NW,316,2.0,4.0,81,0.00,,,0.00,Wunderground v.1.15,2013-03-03 01:45:00,
2013-03-02 20:46:00,21.8,16.9,30.15,WNW,301,1.0,4.0,81,0.00,,,0.00,Wunderground v.1.15,2013-03-03 01:46:00,
2013-03-02 20:48:00,21.8,16.9,30.15,NW,323,2.0,4.0,81,0.00,,,0.00,Wunderground v.1.15,2013-03-03 01:48:00,
2013-03-02 20:50:00,21.7,16.8,30.15,NW,326,3.0,3.0,81,0.00,,,0.00,Wunderground v.1.15,2013-03-03 01:50:00,
2013-03-02 20:51:00,21.7,16.8,30.15,North,10,0.0,3.0,81,0.00,,,0.00,Wunderground v.1.15,2013-03-03 01:51:00,
2013-03-02 20:53:00,21.7,17.1,30.15,North,10,0.0,3.0,82,0.00,,,0.00,Wunderground v.1.15,2013-03-03 01:53:00,
2013-03-02 20:55:00,21.7,17.1,30.15,North,354,0.0,3.0,82,0.00,,,0.00,Wunderground v.1.15,2013-03-03 01:55:00,
2013-03-02 20:56:00,21.7,17.1,30.15,North,354,0.0,3.0,82,0.00,,,0.00,Wunderground v.1.15,2013-03-03 01:56:00,
2013-03-02 20:58:00,21.7,17.1,30.15,NNW,329,1.0,3.0,82,0.00,,,0.00,Wunderground v.1.15,2013-03-03 01:58:00,
2013-03-02 21:00:00,21.7,17.1,30.15,NW,307,0.0,1.0,82,0.00,,,0.00,Wunderground v.1.15,2013-03-03 02:00:00,
2013-03-02 21:01:00,21.7,17.1,30.15,NW,306,1.0,1.0,82,0.00,,,0.00,Wunderground v.1.15,2013-03-03 02:01:00,
2013-03-02 21:03:00,21.7,17.1,30.15,NW,307,0.0,2.0,82,0.00,,,0.00,Wunderground v.1.15,2013-03-03 02:03:00,
2013-03-02 21:04:00,21.7,17.1,30.15,NW,315,1.0,2.0,82,0.00,,,0.00,Wunderground v.1.15,2013-03-03 02:04:00,
2013-03-02 21:06:00,21.7,17.1,30.15,North,6,1.0,2.0,82,0.00,,,0.00,Wunderground v.1.15,2013-03-03 02:06:00,
2013-03-02 21:08:00,21.7,17.1,30.15,NW,315,1.0,2.0,82,0.00,,,0.00,Wunderground v.1.15,2013-03-03 02:08:00,
2013-03-02 21:09:00,21.7,17.1,30.15,ENE,60,2.0,2.0,82,0.00,,,0.00,Wunderground v.1.15,2013-03-03 02:09:00,
2013-03-02 21:11:00,21.6,17.0,30.15,NW,317,0.0,1.0,82,0.00,,,0.00,Wunderground v.1.15,2013-03-03 02:11:00,
2013-03-02 21:13:00,21.6,17.2,30.15,NW,317,1.0,2.0,83,0.00,,,0.00,Wunderground v.1.15,2013-03-03 02:13:00,
2013-03-02 21:14:00,21.7,17.3,30.15,NW,317,0.0,2.0,83,0.00,,,0.00,Wunderground v.1.15,2013-03-03 02:14:00,
2013-03-02 21:16:00,21.6,17.2,30.15,NW,307,1.0,2.0,83,0.00,,,0.00,Wunderground v.1.15,2013-03-03 02:16:00,
2013-03-02 21:19:00,21.6,17.2,30.15,NW,314,0.0,2.0,83,0.00,,,0.00,Wunderground v.1.15,2013-03-03 02:19:00,
2013-03-02 21:21:00,21.6,17.2,30.14,NW,316,0.0,1.0,83,0.00,,,0.00,Wunderground v.1.15,2013-03-03 02:21:00,
2013-03-02 21:24:00,21.6,17.2,30.14,NW,316,0.0,1.0,83,0.00,,,0.00,Wunderground v.1.15,2013-03-03 02:24:00,
2013-03-02 21:26:00,21.6,17.2,30.14,NNW,345,1.0,2.0,83,0.00,,,0.00,Wunderground v.1.15,2013-03-03 02:26:00,
2013-03-02 21:29:00,21.6,17.2,30.14,NW,311,0.0,2.0,83,0.00,,,0.00,Wunderground v.1.15,2013-03-03 02:29:00,
2013-03-02 21:31:00,21.5,17.1,30.14,NW,321,1.0,1.0,83,0.00,,,0.00,Wunderground v.1.15,2013-03-03 02:31:00,
2013-03-02 21:34:00,21.5,17.1,30.14,NW,308,1.0,3.0,83,0.00,,,0.00,Wunderground v.1.15,2013-03-03 02:34:00,
2013-03-02 21:35:00,21.5,17.1,30.14,NW,321,2.0,3.0,83,0.00,,,0.00,Wunderground v.1.15,2013-03-03 02:35:00,
2013-03-02 21:36:00,21.5,17.1,30.14,North,356,2.0,3.0,83,0.00,,,0.00,Wunderground v.1.15,2013-03-03 02:36:00,
2013-03-02 21:37:00,21.5,17.1,30.14,North,8,2.0,3.0,83,0.00,,,0.00,Wunderground v.1.15,2013-03-03 02:37:00,
2013-03-02 21:39:00,21.4,17.0,30.14,WNW,291,1.0,3.0,83,0.00,,,0.00,Wunderground v.1.15,2013-03-03 02:39:00,
2013-03-02 21:40:00,21.4,17.0,30.14,NW,314,0.0,2.0,83,0.00,,,0.00,Wunderground v.1.15,2013-03-03 02:40:00,
2013-03-02 21:42:00,21.3,16.9,30.14,NW,312,2.0,2.0,83,0.00,,,0.00,Wunderground v.1.15,2013-03-03 02:42:00,
2013-03-02 21:44:00,21.3,16.9,30.14,NW,311,0.0,2.0,83,0.00,,,0.00,Wunderground v.1.15,2013-03-03 02:44:00,
2013-03-02 21:45:00,21.3,16.9,30.14,NW,310,0.0,2.0,83,0.00,,,0.00,Wunderground v.1.15,2013-03-03 02:45:00,
2013-03-02 21:47:00,21.2,16.8,30.14,NW,310,1.0,2.0,83,0.00,,,0.00,Wunderground v.1.15,2013-03-03 02:47:00,
2013-03-02 21:50:00,21.2,16.8,30.14,NW,310,1.0,1.0,83,0.00,,,0.00,Wunderground v.1.15,2013-03-03 02:50:00,
2013-03-02 21:52:00,21.2,16.8,30.14,NW,311,0.0,2.0,83,0.00,,,0.00,Wunderground v.1.15,2013-03-03 02:52:00,
2013-03-02 21:55:00,21.1,16.7,30.14,WNW,302,1.0,2.0,83,0.00,,,0.00,Wunderground v.1.15,2013-03-03 02:55:00,
2013-03-02 21:57:00,21.1,16.7,30.14,NW,305,0.0,2.0,83,0.00,,,0.00,Wunderground v.1.15,2013-03-03 02:57:00,
2013-03-02 22:00:00,21.1,16.7,30.14,WNW,285,0.0,2.0,83,0.00,,,0.00,Wunderground v.1.15,2013-03-03 03:00:00,
2013-03-02 22:02:00,21.1,16.7,30.14,WNW,284,0.0,2.0,83,0.00,,,0.00,Wunderground v.1.15,2013-03-03 03:02:00,
2013-03-02 22:04:00,21.1,16.7,30.14,WNW,285,0.0,2.0,83,0.00,,,0.00,Wunderground v.1.15,2013-03-03 03:04:00,
2013-03-02 22:05:00,21.1,17.0,30.14,WNW,289,1.0,2.0,84,0.00,,,0.00,Wunderground v.1.15,2013-03-03 03:05:00,
2013-03-02 22:07:00,21.1,17.0,30.14,NW,304,0.0,2.0,84,0.00,,,0.00,Wunderground v.1.15,2013-03-03 03:07:00,
2013-03-02 22:09:00,21.0,16.9,30.14,NW,305,0.0,2.0,84,0.00,,,0.00,Wunderground v.1.15,2013-03-03 03:09:00,
2013-03-02 22:10:00,21.1,17.0,30.14,NW,305,1.0,1.0,84,0.00,,,0.00,Wunderground v.1.15,2013-03-03 03:10:00,
2013-03-02 22:11:00,21.1,17.0,30.14,NW,304,0.0,1.0,84,0.00,,,0.00,Wunderground v.1.15,2013-03-03 03:11:00,
2013-03-02 22:12:00,21.0,16.9,30.14,NW,304,0.0,1.0,84,0.00,,,0.00,Wunderground v.1.15,2013-03-03 03:12:00,
2013-03-02 22:14:00,21.1,17.0,30.14,NNW,338,1.0,1.0,84,0.00,,,0.00,Wunderground v.1.15,2013-03-03 03:14:00,
2013-03-02 22:15:00,21.1,17.0,30.14,NW,321,0.0,2.0,84,0.00,,,0.00,Wunderground v.1.15,2013-03-03 03:15:00,
2013-03-02 22:16:00,21.1,17.0,30.14,NW,321,0.0,2.0,84,0.00,,,0.00,Wunderground v.1.15,2013-03-03 03:16:00,
2013-03-02 22:17:00,21.1,17.0,30.14,NW,321,1.0,2.0,84,0.00,,,0.00,Wunderground v.1.15,2013-03-03 03:17:00,
2013-03-02 22:20:00,21.1,17.0,30.14,NW,317,2.0,2.0,84,0.00,,,0.00,Wunderground v.1.15,2013-03-03 03:20:00,
2013-03-02 22:21:00,21.1,17.0,30.14,NW,316,0.0,2.0,84,0.00,,,0.00,Wunderground v.1.15,2013-03-03 03:21:00,
2013-03-02 22:22:00,21.1,17.0,30.14,NW,316,0.0,2.0,84,0.00,,,0.00,Wunderground v.1.15,2013-03-03 03:22:00,
2013-03-02 22:25:00,21.1,17.0,30.14,WNW,294,0.0,2.0,84,0.00,,,0.00,Wunderground v.1.15,2013-03-03 03:25:00,
2013-03-02 22:26:00,21.1,17.0,30.14,WNW,294,0.0,2.0,84,0.00,,,0.00,Wunderground v.1.15,2013-03-03 03:26:00,
2013-03-02 22:27:00,21.1,17.0,30.14,North,5,0.0,2.0,84,0.00,,,0.00,Wunderground v.1.15,2013-03-03 03:27:00,
2013-03-02 22:30:00,21.1,17.0,30.14,WNW,301,1.0,1.0,84,0.00,,,0.00,Wunderground v.1.15,2013-03-03 03:30:00,
2013-03-02 22:31:00,21.1,17.0,30.14,NW,311,0.0,2.0,84,0.00,,,0.00,Wunderground v.1.15,2013-03-03 03:31:00,
2013-03-02 22:33:00,21.1,17.3,30.14,NW,312,1.0,2.0,85,0.00,,,0.00,Wunderground v.1.15,2013-03-03 03:33:00,
2013-03-02 22:35:00,21.1,17.3,30.14,WNW,301,0.0,2.0,85,0.00,,,0.00,Wunderground v.1.15,2013-03-03 03:35:00,
2013-03-02 22:36:00,21.1,17.3,30.14,NW,304,1.0,2.0,85,0.00,,,0.00,Wunderground v.1.15,2013-03-03 03:36:00,
2013-03-02 22:38:00,21.1,17.3,30.14,NW,315,3.0,3.0,85,0.00,,,0.00,Wunderground v.1.15,2013-03-03 03:38:00,
2013-03-02 22:40:00,21.1,17.3,30.14,NW,306,0.0,1.0,85,0.00,,,0.00,Wunderground v.1.15,2013-03-03 03:40:00,
2013-03-02 22:41:00,21.1,17.3,30.14,NW,306,0.0,1.0,85,0.00,,,0.00,Wunderground v.1.15,2013-03-03 03:41:00,
2013-03-02 22:43:00,21.1,17.3,30.14,NW,315,0.0,3.0,85,0.00,,,0.00,Wunderground v.1.15,2013-03-03 03:43:00,
2013-03-02 22:45:00,21.1,17.3,30.14,WNW,301,1.0,3.0,85,0.00,,,0.00,Wunderground v.1.15,2013-03-03 03:45:00,
2013-03-02 22:46:00,21.1,17.3,30.14,WNW,294,1.0,3.0,85,0.00,,,0.00,Wunderground v.1.15,2013-03-03 03:46:00,
2013-03-02 22:48:00,21.1,17.3,30.14,WNW,287,1.0,3.0,85,0.00,,,0.00,Wunderground v.1.15,2013-03-03 03:48:00,
2013-03-02 22:51:00,21.1,17.3,30.14,NW,310,5.0,5.0,85,0.00,,,0.00,Wunderground v.1.15,2013-03-03 03:51:00,
2013-03-02 22:54:00,21.1,17.3,30.14,NW,316,3.0,5.0,85,0.00,,,0.00,Wunderground v.1.15,2013-03-03 03:54:00,
2013-03-02 22:56:00,21.1,17.3,30.14,West,269,0.0,5.0,85,0.00,,,0.00,Wunderground v.1.15,2013-03-03 03:56:00,
2013-03-02 22:57:00,21.1,17.3,30.14,NW,313,1.0,5.0,85,0.00,,,0.00,Wunderground v.1.15,2013-03-03 03:57:00,
2013-03-02 22:59:00,21.1,17.3,30.14,NNW,344,1.0,5.0,85,0.00,,,0.00,Wunderground v.1.15,2013-03-03 03:59:00,
2013-03-02 23:01:00,21.1,17.3,30.14,NW,311,0.0,2.0,85,0.00,,,0.00,Wunderground v.1.15,2013-03-03 04:01:00,
2013-03-02 23:02:00,21.1,17.3,30.14,NW,311,0.0,2.0,85,0.00,,,0.00,Wunderground v.1.15,2013-03-03 04:02:00,
2013-03-02 23:04:00,21.1,17.3,30.14,NW,307,0.0,2.0,85,0.00,,,0.00,Wunderground v.1.15,2013-03-03 04:04:00,
2013-03-02 23:06:00,21.2,17.4,30.13,West,273,1.0,3.0,85,0.00,,,0.00,Wunderground v.1.15,2013-03-03 04:06:00,
2013-03-02 23:07:00,21.1,17.3,30.14,WNW,302,1.0,3.0,85,0.00,,,0.00,Wunderground v.1.15,2013-03-03 04:07:00,
2013-03-02 23:09:00,21.1,17.3,30.14,WNW,302,0.0,3.0,85,0.00,,,0.00,Wunderground v.1.15,2013-03-03 04:09:00,
2013-03-02 23:11:00,21.1,17.3,30.14,NW,309,0.0,2.0,85,0.00,,,0.00,Wunderground v.1.15,2013-03-03 04:11:00,
2013-03-02 23:12:00,21.2,17.4,30.13,NW,307,2.0,3.0,85,0.00,,,0.00,Wunderground v.1.15,2013-03-03 04:12:00,
2013-03-02 23:13:00,21.2,17.4,30.13,NNW,333,1.0,3.0,85,0.00,,,0.00,Wunderground v.1.15,2013-03-03 04:13:00,
2013-03-02 23:14:00,21.1,17.3,30.13,NW,322,2.0,3.0,85,0.00,,,0.00,Wunderground v.1.15,2013-03-03 04:14:00,
2013-03-02 23:17:00,21.2,17.4,30.13,West,276,1.0,3.0,85,0.00,,,0.00,Wunderground v.1.15,2013-03-03 04:17:00,
2013-03-02 23:18:00,21.2,17.4,30.13,WNW,287,2.0,3.0,85,0.00,,,0.00,Wunderground v.1.15,2013-03-03 04:18:00,
2013-03-02 23:19:00,21.2,17.4,30.13,WNW,295,1.0,3.0,85,0.00,,,0.00,Wunderground v.1.15,2013-03-03 04:19:00,
2013-03-02 23:22:00,21.2,17.4,30.13,NW,326,2.0,3.0,85,0.00,,,0.00,Wunderground v.1.15,2013-03-03 04:22:00,
2013-03-02 23:23:00,21.2,17.4,30.13,NW,315,0.0,3.0,85,0.00,,,0.00,Wunderground v.1.15,2013-03-03 04:23:00,
2013-03-02 23:24:00,21.1,17.3,30.13,NW,314,1.0,3.0,85,0.00,,,0.00,Wunderground v.1.15,2013-03-03 04:24:00,
2013-03-02 23:27:00,21.2,17.4,30.13,WNW,284,1.0,3.0,85,0.00,,,0.00,Wunderground v.1.15,2013-03-03 04:27:00,
2013-03-02 23:28:00,21.1,17.3,30.13,WNW,290,0.0,3.0,85,0.00,,,0.00,Wunderground v.1.15,2013-03-03 04:28:00,
2013-03-02 23:29:00,21.2,17.4,30.13,WNW,287,1.0,3.0,85,0.00,,,0.00,Wunderground v.1.15,2013-03-03 04:29:00,
2013-03-02 23:32:00,21.2,17.4,30.13,NW,317,4.0,4.0,85,0.00,,,0.00,Wunderground v.1.15,2013-03-03 04:32:00,
2013-03-02 23:33:00,21.1,17.3,30.13,NW,315,1.0,5.0,85,0.00,,,0.00,Wunderground v.1.15,2013-03-03 04:33:00,
2013-03-02 23:34:00,21.2,17.1,30.13,NW,326,3.0,5.0,84,0.00,,,0.00,Wunderground v.1.15,2013-03-03 04:34:00,
2013-03-02 23:37:00,21.1,17.0,30.13,WNW,302,2.0,5.0,84,0.00,,,0.00,Wunderground v.1.15,2013-03-03 04:37:00,
2013-03-02 23:38:00,21.1,17.0,30.13,NW,310,1.0,5.0,84,0.00,,,0.00,Wunderground v.1.15,2013-03-03 04:38:00,
2013-03-02 23:40:00,21.1,17.0,30.13,WNW,287,2.0,2.0,84,0.00,,,0.00,Wunderground v.1.15,2013-03-03 04:40:00,
2013-03-02 23:42:00,21.1,17.0,30.13,West,271,4.0,4.0,84,0.00,,,0.00,Wunderground v.1.15,2013-03-03 04:42:00,
2013-03-02 23:43:00,21.1,17.0,30.13,NW,309,1.0,4.0,84,0.00,,,0.00,Wunderground v.1.15,2013-03-03 04:43:00,
2013-03-02 23:44:00,21.1,17.0,30.13,NW,313,1.0,4.0,84,0.00,,,0.00,Wunderground v.1.15,2013-03-03 04:44:00,
2013-03-02 23:45:00,21.1,17.0,30.13,NW,314,0.0,4.0,84,0.00,,,0.00,Wunderground v.1.15,2013-03-03 04:45:00,
2013-03-02 23:47:00,21.1,17.3,30.13,NW,315,1.0,4.0,85,0.00,,,0.00,Wunderground v.1.15,2013-03-03 04:47:00,
2013-03-02 23:48:00,21.1,17.3,30.13,WNW,287,1.0,4.0,85,0.00,,,0.00,Wunderground v.1.15,2013-03-03 04:48:00,
2013-03-02 23:49:00,21.1,17.3,30.13,WNW,288,0.0,4.0,85,0.00,,,0.00,Wunderground v.1.15,2013-03-03 04:49:00,
2013-03-02 23:50:00,21.1,17.3,30.13,WNW,283,1.0,1.0,85,0.00,,,0.00,Wunderground v.1.15,2013-03-03 04:50:00,
2013-03-02 23:53:00,21.1,17.3,30.13,NW,315,1.0,6.0,85,0.00,,,0.00,Wunderground v.1.15,2013-03-03 04:53:00,
2013-03-02 23:54:00,21.1,17.3,30.13,NW,319,3.0,6.0,85,0.00,,,0.00,Wunderground v.1.15,2013-03-03 04:54:00,
2013-03-02 23:55:00,21.1,17.3,30.13,WNW,300,2.0,6.0,85,0.00,,,0.00,Wunderground v.1.15,2013-03-03 04:55:00,
2013-03-02 23:58:00,21.1,17.3,30.13,NW,317,2.0,6.0,85,0.00,,,0.00,Wunderground v.1.15,2013-03-03 04:58:00,
2013-03-02 23:59:00,21.0,17.2,30.13,NNW,341,1.0,6.0,85,0.00,,,0.00,Wunderground v.1.15,2013-03-03 04:59:00,